GFSSGP_sfc_temp_000.txt.gz
Temp
85 90 88 79 68 70 64 67 76 73 75 83 84 80 74 76 70 59 81 88 91 87 87 84 82 83 83 83 83 83 82 82 82 82 82 82 82 83 82 82 82 82 82 81 82 81 82 82 82
83 89 81 74 66 62 62 73 70 74 80 83 85 82 77 71 80 79 80 87 91 91 85 83 83 82 83 83 83 83 82 82 82 82 82 82 82 82 82 82 82 82 82 82 81 81 81 82 81
88 92 73 71 68 61 63 72 72 79 82 83 81 81 76 72 81 80 82 88 90 86 83 82 82 82 82 82 82 82 82 82 82 82 82 82 82 82 82 82 82 82 82 81 81 81 81 81 81
82 80 78 68 67 71 72 74 77 79 82 84 80 70 76 80 79 80 86 89 86 85 82 81 82 82 82 82 82 82 81 81 81 81 82 82 82 82 82 81 81 81 81 81 81 81 81 81 81
82 76 68 68 68 73 77 79 79 77 79 81 81 71 70 78 83 83 84 87 84 84 83 81 82 82 81 81 81 81 81 81 81 81 81 82 82 82 82 81 81 80 80 80 81 81 81 81 81
72 76 66 64 69 75 77 79 79 78 79 80 76 72 69 78 79 81 84 82 85 84 84 82 81 81 81 81 81 81 81 81 81 81 81 81 82 82 82 81 80 80 80 80 80 80 81 81 81
72 69 66 69 67 70 76 81 76 76 77 77 81 70 72 75 76 82 82 82 83 84 84 82 81 80 80 81 81 81 82 82 82 82 82 82 81 82 82 81 81 80 80 80 80 80 80 80 80
72 71 69 69 66 67 76 79 80 77 71 82 81 69 65 74 78 81 82 81 79 80 81 81 80 82 80 77 81 82 81 82 82 82 81 81 81 81 81 81 81 80 80 81 80 80 79 79 78
80 64 63 69 70 71 77 74 80 81 76 78 77 73 75 79 81 78 77 77 76 80 78 78 79 78 79 79 81 81 82 82 81 79 79 76 72 72 74 79 80 81 81 81 81 80 79 77 77
71 64 68 75 76 72 75 75 75 74 72 71 71 74 77 78 77 76 74 72 72 71 74 75 75 75 74 82 75 73 77 72 72 72 71 71 71 72 76 76 79 80 80 80 81 80 79 76 73
75 67 74 75 77 78 75 75 78 72 66 71 68 71 74 75 72 73 73 72 69 69 71 74 72 72 71 71 71 70 69 69 70 70 70 68 70 68 68 67 68 68 76 72 74 73 73 73 71
70 75 77 75 76 77 73 77 71 73 70 78 74 74 73 72 72 72 71 71 70 69 69 72 73 71 70 67 67 67 67 67 66 67 68 65 64 65 65 67 65 66 67 68 68 69 72 71 71
72 74 77 76 74 75 78 71 71 70 73 75 75 74 72 72 71 71 72 72 71 69 68 69 70 69 68 67 65 65 64 64 65 65 66 64 62 62 62 63 64 64 65 67 67 68 70 71 71
76 75 74 74 74 75 72 70 69 71 72 71 70 69 70 70 71 70 71 70 68 67 68 69 69 68 68 65 64 63 63 63 63 63 64 65 62 61 61 61 62 62 63 64 65 66 68 69 71
76 68 70 71 72 71 73 65 64 72 71 69 67 67 69 69 70 69 71 69 69 67 67 66 67 68 65 64 63 62 62 64 61 62 64 63 62 61 60 59 60 61 62 63 62 63 65 65 69
70 69 58 70 71 72 69 57 68 73 68 66 67 68 67 68 69 69 70 69 66 67 66 65 70 66 65 63 62 63 62 61 60 61 61 63 63 62 59 58 59 60 60 60 59 59 59 61 63
65 58 61 64 73 71 66 59 69 71 68 65 67 68 68 66 67 68 69 67 67 67 66 65 65 65 65 63 63 62 62 60 60 60 59 61 62 62 59 58 58 59 58 57 58 58 57 57 59
60 60 65 64 68 69 62 61 66 68 67 65 67 68 69 67 68 68 68 67 67 66 65 65 64 64 63 61 61 60 59 59 59 58 58 61 60 61 58 57 58 58 56 55 56 55 56 56 58
67 65 64 69 72 66 63 63 67 68 66 64 65 68 68 69 70 69 67 66 64 64 63 63 63 62 60 58 55 55 54 56 56 57 60 60 60 60 58 56 57 57 55 55 56 54 54 53 55
68 63 62 68 69 65 63 62 68 71 66 65 65 66 68 69 70 68 65 63 63 63 63 62 63 62 60 57 56 55 55 55 56 57 58 59 60 59 60 57 56 56 54 54 54 53 51 52 54
64 62 63 63 65 66 61 56 61 69 73 70 68 69 70 70 69 67 62 61 61 61 61 62 62 62 60 59 57 56 55 55 54 55 55 57 60 59 58 58 56 55 54 52 52 52 51 49 52
59 68 68 64 58 49 62 46 60 67 66 70 71 68 68 69 70 69 64 62 61 60 62 62 62 62 61 59 56 53 51 49 52 53 54 56 59 58 59 58 57 55 54 52 52 57 52 50 48
62 65 63 62 56 54 56 48 55 66 62 67 70 71 68 69 69 67 65 64 64 62 60 60 61 61 60 58 56 53 52 52 53 53 54 54 56 58 58 57 56 54 53 53 53 52 51 53 52
66 62 59 58 53 42 54 54 53 61 67 68 70 71 69 68 68 67 66 65 63 61 60 59 59 59 59 57 56 54 52 52 51 51 51 51 53 53 56 58 55 54 53 53 52 53 52 52 52
61 54 44 41 40 41 59 55 59 66 67 67 67 67 67 66 65 64 63 62 61 58 58 58 57 56 57 57 56 55 54 53 52 52 50 51 50 51 52 54 54 53 53 53 52 51 52 53 51
56 56 47 39 41 48 55 46 57 70 68 67 69 68 66 64 64 62 63 62 61 60 58 57 57 56 57 57 56 56 55 52 52 53 52 51 50 51 54 54 54 54 56 54 52 52 52 54 52
58 50 60 51 54 47 52 59 66 69 63 64 65 64 62 62 62 62 63 63 62 60 59 59 57 57 57 57 56 56 55 54 52 53 53 51 52 56 55 54 53 54 53 53 52 51 52 50 47
62 63 48 48 38 37 49 52 53 61 62 62 61 60 61 62 62 62 63 62 63 62 61 61 59 57 57 57 56 57 55 55 54 53 52 52 53 53 53 53 53 53 53 52 52 51 49 47 46
54 52 55 54 51 41 42 48 64 63 65 64 62 62 61 61 62 63 63 63 61 61 60 59 59 58 57 57 56 55 54 55 54 53 53 53 53 53 53 54 54 53 52 53 51 49 49 49 49
62 57 57 48 45 51 51 51 69 63 68 68 65 65 62 62 61 62 62 61 61 59 59 58 57 57 57 57 56 55 54 54 53 53 53 54 53 54 54 54 54 55 52 51 49 49 52 48 48

GFSSGP_sfc_temp_003.txt.gz
Temp
81 82 76 73 65 60 61 60 68 67 70 73 77 72 67 68 66 56 77 84 83 81 81 82 82 83 83 83 83 83 82 82 82 82 82 83 82 82 82 82 82 82 82 82 82 82 82 82 81
78 81 74 67 59 54 54 62 63 68 75 77 77 74 70 66 76 75 78 82 83 81 81 81 82 82 83 83 83 82 82 82 82 82 82 82 82 82 82 82 82 82 82 82 81 81 81 82 81
80 82 68 63 60 56 55 63 67 73 76 76 72 73 68 67 76 74 77 81 80 78 80 81 82 82 82 82 82 82 82 82 82 82 82 83 82 82 82 82 81 81 81 81 81 81 81 81 81
75 72 69 60 58 63 63 65 71 72 75 76 70 64 69 72 74 74 80 80 77 75 77 81 82 82 81 82 82 82 82 82 82 82 82 82 82 82 82 82 81 80 80 80 80 80 81 81 81
71 66 60 57 59 64 65 71 72 70 72 72 71 63 64 72 77 77 78 81 76 75 78 80 82 82 82 82 82 82 81 81 81 81 81 82 82 82 81 81 81 81 81 80 80 80 81 81 81
64 65 57 54 58 66 66 72 70 71 71 69 67 64 62 70 73 74 78 76 78 77 79 80 81 81 81 82 82 82 82 81 81 81 81 82 82 82 81 81 81 81 80 80 80 80 80 80 80
62 59 55 57 58 62 68 73 66 69 69 69 71 61 62 66 72 75 74 75 77 77 76 75 76 79 80 80 81 81 82 82 81 80 80 80 80 80 80 80 80 81 80 81 80 80 80 79 79
65 61 58 58 60 60 69 73 72 70 65 76 73 61 58 67 74 74 73 72 71 74 74 71 72 74 72 73 81 81 81 80 79 79 78 78 76 77 78 78 79 80 80 80 80 80 79 78 78
69 56 54 59 61 64 70 69 73 73 69 68 67 65 68 73 74 70 68 70 70 73 69 69 69 68 70 72 76 75 78 78 76 74 76 70 67 67 69 75 77 79 79 79 79 79 78 77 77
61 53 59 67 67 65 69 70 70 68 65 62 64 68 71 72 69 69 66 65 65 65 67 67 66 67 67 76 66 65 70 65 66 66 65 64 63 67 70 70 74 75 77 76 76 76 76 75 68
64 58 67 68 71 71 70 68 72 65 60 64 62 66 69 68 67 67 65 65 64 62 66 68 64 65 65 64 62 61 61 61 62 63 62 61 63 61 61 60 61 62 70 66 68 67 68 67 66
60 69 70 69 71 70 68 70 67 66 64 70 68 68 68 67 67 66 65 64 64 64 63 66 66 64 62 61 60 60 60 60 60 61 61 58 57 58 58 58 59 59 60 60 60 61 64 65 65
63 66 71 70 69 69 72 66 66 64 65 68 70 69 67 65 65 66 66 65 62 63 63 64 62 60 60 60 59 59 59 58 59 59 60 58 56 56 57 57 58 58 59 59 59 59 61 62 64
66 68 68 68 68 68 67 64 67 65 66 66 67 65 65 65 66 64 66 64 61 61 62 63 63 59 60 58 59 58 58 58 58 58 58 60 57 56 56 56 57 57 57 58 58 57 58 60 60
68 61 62 64 66 65 67 60 61 65 65 63 62 60 63 64 66 64 65 64 62 60 61 62 62 61 58 59 59 57 58 59 57 57 59 60 58 57 56 55 55 56 57 58 57 57 57 57 61
60 58 49 61 64 66 64 50 62 64 62 59 59 57 61 63 64 63 66 65 62 61 60 61 68 61 58 58 57 58 57 56 56 56 56 59 59 58 55 55 55 56 56 56 55 55 54 54 53
53 46 51 57 65 64 60 53 63 64 64 60 56 58 60 59 61 62 64 63 62 60 58 59 60 60 59 58 57 57 57 56 55 55 55 58 58 59 55 54 54 55 54 53 54 54 52 52 53
48 48 55 53 61 61 56 56 59 60 62 60 59 60 60 61 63 63 63 63 62 61 59 58 58 59 58 55 55 54 54 54 54 54 55 58 56 58 55 54 54 55 53 52 52 52 52 52 52
57 56 55 59 65 60 57 58 59 60 60 58 57 59 62 62 65 64 63 61 60 59 58 57 58 56 55 53 52 51 51 51 52 54 57 57 56 57 55 53 53 53 52 52 52 51 50 49 51
59 55 54 60 63 61 56 57 62 60 61 62 61 61 62 63 60 62 61 59 58 58 58 57 58 57 55 53 52 51 50 51 52 53 55 56 56 57 56 54 53 53 51 51 51 50 47 48 50
58 55 53 55 59 60 55 50 55 63 64 65 64 65 65 64 62 61 59 59 57 56 57 56 56 57 55 55 53 52 51 50 50 51 52 54 56 56 55 54 53 52 50 49 49 49 48 45 47
52 61 61 59 52 43 54 44 51 60 61 62 63 61 62 64 66 62 60 58 58 57 56 58 57 56 56 55 52 50 48 47 48 49 50 52 55 55 55 55 53 51 50 49 49 54 49 46 44
56 62 58 57 50 44 47 42 46 56 56 60 62 62 62 65 64 61 60 60 59 59 56 56 56 56 56 53 52 50 48 48 49 49 51 51 52 54 55 54 53 51 50 49 49 49 48 47 46
62 58 55 51 46 36 46 45 53 52 61 61 60 63 64 64 65 63 62 61 59 59 57 55 55 55 55 53 52 51 49 49 48 48 48 48 49 50 53 54 52 51 50 50 49 49 48 47 46
57 48 37 35 33 35 51 46 55 58 62 64 65 61 62 64 63 59 58 58 58 56 56 56 55 53 53 53 53 52 50 50 49 49 47 47 48 48 49 50 51 50 50 50 50 48 47 47 47
51 50 38 31 32 42 49 41 53 64 71 66 66 63 59 60 63 61 60 59 58 58 57 58 54 53 53 53 52 52 53 49 49 49 48 48 48 48 50 51 51 51 52 51 50 47 47 47 46
50 47 56 43 43 37 44 49 58 60 59 59 60 59 58 59 59 59 59 59 58 58 57 57 55 54 54 53 52 52 52 51 49 50 49 48 49 52 51 51 50 51 50 50 49 47 46 46 46
54 55 43 41 33 30 40 42 47 57 65 58 56 57 57 58 56 57 59 58 58 58 57 57 57 55 55 53 53 53 51 52 51 50 49 49 49 50 50 50 49 49 50 50 48 47 46 45 46
49 50 48 47 40 33 35 39 54 61 61 56 60 57 57 57 58 58 58 58 57 58 57 57 56 56 54 55 53 52 51 52 51 50 50 50 50 50 49 50 50 49 49 48 47 46 45 45 46
59 55 55 43 37 43 47 48 59 61 61 60 58 60 57 58 57 57 56 56 57 57 57 58 57 56 56 54 52 51 52 51 49 49 49 50 49 50 50 50 50 51 50 48 46 47 49 47 47

GFSSGP_sfc_temp_006.txt.gz
Temp
80 79 74 72 63 59 54 58 63 64 65 69 71 69 65 66 65 54 74 80 80 79 80 81 82 83 83 83 83 82 82 82 82 82 82 82 82 82 82 82 82 82 82 81 81 81 81 81 81
77 80 71 65 59 51 53 60 61 65 70 71 72 70 66 64 73 72 72 79 81 79 79 79 82 82 83 83 82 82 82 82 82 82 82 82 82 82 82 81 81 81 81 81 81 81 81 81 81
78 80 68 61 56 56 53 61 65 70 72 72 69 69 65 65 72 71 73 77 77 76 78 80 82 82 82 81 82 82 82 82 82 82 82 83 82 82 82 81 81 81 80 80 80 80 80 81 81
73 70 68 59 56 59 62 64 68 72 73 72 67 62 66 70 71 73 76 76 73 74 76 80 82 82 81 82 82 82 82 81 81 81 82 82 82 82 82 82 81 81 80 80 80 80 80 80 80
69 65 58 55 57 60 62 68 70 68 68 68 67 61 62 70 74 74 74 76 73 73 76 79 82 82 82 82 82 82 81 81 81 81 81 81 81 81 81 81 81 81 80 80 80 80 80 80 80
64 63 56 52 56 62 62 69 71 68 65 66 64 61 62 68 72 72 74 72 75 74 76 78 81 81 81 82 82 82 81 80 80 80 79 79 79 79 79 80 80 80 80 80 80 80 79 79 79
61 57 55 54 56 59 66 69 66 66 64 65 67 59 60 64 70 72 71 71 74 74 73 73 74 78 80 80 81 81 80 79 79 78 77 76 77 77 77 78 79 79 79 79 80 80 79 79 78
62 60 55 55 58 59 68 70 70 68 63 70 68 58 57 66 71 70 70 69 69 70 71 69 69 69 69 68 79 79 79 78 77 76 75 73 72 74 74 75 77 78 78 78 77 77 78 78 78
66 55 53 57 59 62 67 67 69 69 66 64 63 63 67 71 69 66 65 66 67 69 66 66 66 65 67 68 72 72 75 75 73 70 72 65 61 62 64 72 74 75 75 75 75 75 75 74 73
59 52 58 65 64 63 66 67 68 66 62 59 60 63 67 68 65 65 64 63 63 63 64 63 62 63 64 72 61 61 65 61 61 61 60 59 58 63 66 67 71 72 72 72 72 72 71 69 62
60 56 64 67 68 68 67 65 68 63 58 61 61 64 67 65 64 64 64 64 63 63 64 64 61 62 62 61 58 57 57 58 58 59 58 57 59 57 57 56 57 57 66 62 63 62 63 61 60
59 66 68 67 69 68 64 67 64 63 63 67 66 68 65 64 63 63 62 62 62 63 63 63 63 61 59 58 57 57 57 56 56 57 57 55 54 54 54 54 55 55 56 56 56 56 59 60 60
60 63 68 67 68 67 67 64 64 63 65 66 67 66 64 63 63 63 65 62 60 61 62 62 60 57 57 57 56 56 56 56 56 56 57 55 54 53 54 54 54 54 55 55 55 55 56 57 58
64 65 64 65 66 66 64 63 63 63 62 63 66 64 63 64 64 61 61 62 59 60 60 60 60 56 57 55 55 55 55 55 55 54 56 57 54 53 53 53 54 54 54 55 54 54 53 53 55
65 59 59 61 63 62 65 60 59 62 62 61 61 60 62 62 63 64 65 63 61 59 60 59 59 58 56 56 55 54 56 56 54 54 56 57 56 54 53 53 53 52 54 55 54 54 54 53 56
58 56 47 58 61 64 63 50 60 62 60 58 59 57 59 61 62 61 62 64 59 59 57 58 66 58 56 55 54 55 55 54 53 54 54 57 57 55 54 53 53 53 54 53 53 52 51 51 50
50 43 47 54 61 60 58 52 59 60 61 60 58 58 60 58 59 60 62 62 61 59 57 57 57 57 56 54 54 54 54 53 53 53 53 56 57 57 53 52 52 53 52 52 52 52 50 50 50
45 45 49 50 58 58 54 55 58 58 60 61 59 58 59 60 63 64 62 60 60 57 56 56 56 55 55 53 52 51 52 51 52 52 53 56 55 56 53 52 52 52 51 50 50 49 50 49 49
52 50 51 55 62 56 55 57 60 60 56 57 56 57 58 61 66 62 61 59 57 56 54 54 54 54 53 50 49 49 49 50 50 51 54 55 54 55 53 51 51 51 50 50 50 49 48 47 48
54 50 49 55 61 57 54 54 60 57 56 59 60 58 58 61 60 60 62 59 59 57 56 53 56 54 53 51 50 50 49 49 51 51 52 54 54 54 55 51 50 50 49 49 49 48 45 45 46
53 52 50 53 56 55 52 51 53 58 61 63 63 63 62 62 62 60 61 59 58 58 56 56 55 55 53 53 50 49 49 48 48 49 50 52 54 54 53 52 50 49 48 47 47 47 46 43 45
50 57 58 56 50 43 52 45 48 54 56 57 62 64 62 63 65 63 61 60 58 60 58 57 56 55 54 52 50 49 47 46 47 48 49 51 52 53 53 53 51 49 48 47 47 51 46 44 43
55 59 57 55 47 41 46 40 42 51 53 59 60 63 63 65 65 62 61 61 61 60 58 58 55 55 54 52 50 48 46 47 47 47 48 48 50 51 53 52 50 49 47 47 47 47 46 44 43
60 54 50 46 43 35 47 44 52 51 58 63 67 63 63 62 63 64 63 62 60 59 58 55 54 55 53 52 50 49 48 47 46 46 46 47 47 48 50 52 50 49 47 48 48 47 46 45 44
55 47 36 34 32 36 48 43 54 55 57 59 64 65 58 60 61 60 58 58 57 56 56 55 54 53 53 52 51 49 49 48 47 47 46 46 46 46 48 49 49 48 48 48 48 46 46 45 44
49 49 38 31 32 42 45 39 52 58 68 70 66 63 58 56 60 58 59 58 57 57 56 57 54 54 52 52 51 50 50 47 47 47 46 46 46 47 49 49 48 49 49 48 47 45 45 44 44
51 44 53 43 38 34 39 46 55 57 58 58 58 59 58 56 59 58 58 58 57 57 57 57 54 55 53 53 52 49 50 48 47 48 47 46 47 50 49 49 48 49 48 48 47 45 45 45 43
54 54 41 38 33 31 40 38 46 51 61 62 56 56 58 55 56 57 56 57 57 58 58 58 56 55 54 53 53 52 50 49 49 48 47 47 47 48 48 48 48 47 47 47 46 44 45 43 44
47 48 45 43 40 37 38 44 51 59 61 59 59 59 59 56 57 57 57 57 57 57 57 56 55 55 54 54 52 50 50 49 49 48 48 48 48 48 48 48 48 47 47 47 45 44 44 43 44
58 54 53 44 41 36 45 47 55 56 57 58 63 59 55 56 54 55 54 53 54 55 54 54 55 55 55 54 53 52 50 49 48 48 48 48 48 48 48 48 48 48 47 46 44 44 46 45 44

GFSSGP_sfc_temp_009.txt.gz
Temp
79 77 72 71 63 58 52 57 61 62 62 66 68 68 64 63 63 55 73 77 79 77 79 80 82 82 83 82 82 82 82 82 82 82 82 82 82 82 81 81 81 81 81 81 81 81 81 81 81
75 78 71 64 56 51 52 59 61 64 67 68 69 67 64 61 70 69 70 78 79 79 77 78 82 82 82 82 82 82 82 82 82 82 82 82 82 82 81 81 81 81 81 80 80 80 81 81 80
76 78 67 60 54 52 53 60 62 67 70 68 65 65 63 64 70 69 72 76 77 75 77 79 82 82 82 82 82 82 82 82 82 82 82 82 82 82 82 81 81 80 80 80 80 80 80 80 80
71 69 66 58 55 58 60 63 66 65 68 69 65 61 64 69 69 71 74 75 73 73 75 79 82 82 82 82 81 81 81 81 81 81 82 81 81 81 81 81 81 80 80 80 80 79 79 80 80
67 64 57 54 56 59 60 66 67 66 66 65 65 60 61 67 70 72 72 74 72 72 75 78 82 82 81 81 81 81 80 80 80 80 79 80 79 79 80 80 80 80 80 80 80 79 79 79 79
63 62 55 51 55 61 61 65 67 65 64 64 62 60 61 67 68 69 72 71 73 73 75 78 81 81 81 81 81 80 80 79 78 78 77 78 77 78 78 79 79 79 78 78 79 79 79 79 78
61 57 55 54 55 57 64 68 64 64 62 62 65 57 58 62 67 70 69 70 72 73 73 73 74 78 80 80 80 79 79 78 77 76 75 75 75 75 76 77 78 77 77 77 76 77 76 76 76
60 58 54 53 55 57 66 68 69 66 62 66 67 57 55 64 68 67 68 68 69 70 69 67 66 68 67 68 79 78 77 76 75 74 73 71 70 71 73 73 75 75 75 75 75 75 74 74 74
63 54 50 55 56 60 65 66 68 66 64 63 64 62 64 69 66 63 63 64 65 68 65 64 64 63 63 65 72 73 75 73 71 68 70 63 58 60 61 71 73 73 73 73 73 73 72 71 69
59 52 56 63 62 62 65 65 66 64 60 59 59 62 63 65 64 63 62 62 62 62 63 62 61 62 62 69 58 59 63 58 58 58 56 56 55 60 62 66 69 71 69 70 70 70 69 65 59
57 55 61 65 67 66 65 64 67 61 56 61 61 63 63 62 62 65 63 64 62 62 62 62 59 61 61 59 56 55 55 55 56 56 55 55 56 54 54 54 54 54 63 58 59 58 59 58 57
56 63 64 65 68 66 63 66 63 62 64 66 65 65 66 62 64 64 64 61 60 61 61 62 61 60 58 56 55 55 55 54 54 55 55 53 52 52 52 52 53 53 53 54 53 53 55 55 56
57 61 65 66 66 65 65 64 63 62 65 62 65 64 65 65 64 64 66 63 60 60 60 60 59 57 56 56 54 54 54 53 54 54 55 53 52 51 52 52 52 52 53 52 52 52 53 52 54
62 63 63 64 63 64 62 61 61 63 64 62 62 62 64 64 63 62 59 61 59 61 60 59 59 55 56 54 54 53 53 53 53 53 54 55 52 52 52 51 52 52 51 52 52 51 51 51 51
62 57 59 59 60 61 62 58 57 64 60 60 58 62 63 63 63 64 65 65 62 59 59 58 57 56 54 54 53 52 53 53 52 53 54 55 54 52 52 51 51 50 51 53 52 52 51 50 53
55 53 46 55 59 62 62 50 58 61 58 57 56 57 60 61 62 63 64 65 61 59 57 56 64 56 54 53 52 53 52 51 51 52 52 55 55 54 52 51 51 51 51 51 51 50 50 49 48
48 42 45 51 58 58 57 50 58 58 59 58 57 58 60 61 59 58 60 62 62 60 56 56 56 55 54 52 52 51 52 51 51 51 52 54 55 55 52 51 50 51 50 50 50 50 48 48 48
43 43 46 46 55 53 51 52 59 55 56 59 59 58 59 61 64 64 63 63 61 58 58 57 55 54 52 51 49 49 49 50 50 50 52 54 53 54 51 50 50 50 50 49 49 48 48 47 47
50 46 46 51 58 54 51 55 59 60 54 56 55 57 57 60 66 64 62 59 56 55 54 56 54 52 52 48 47 47 48 48 49 50 53 53 53 53 51 50 50 50 49 48 48 47 46 46 45
49 47 46 51 57 54 52 53 58 61 54 60 59 58 59 61 63 60 61 58 58 57 57 56 56 53 53 52 48 49 48 48 49 50 51 52 52 53 52 50 49 49 48 48 47 46 44 44 44
50 48 47 50 55 52 49 51 50 56 59 59 60 64 64 61 61 61 60 59 59 58 57 57 57 55 54 52 48 46 47 47 47 48 48 50 52 52 52 50 49 48 47 46 46 45 44 42 43
47 54 54 53 47 43 49 43 48 52 55 56 60 61 60 61 63 64 61 61 60 60 60 59 57 56 55 52 49 48 46 46 46 47 48 49 51 51 52 51 50 48 46 45 45 49 45 42 41
50 57 52 51 45 40 44 41 41 48 50 55 60 60 62 64 63 62 63 63 62 62 59 59 57 56 56 53 52 49 46 46 46 46 47 47 48 50 51 51 49 48 46 46 46 45 44 43 42
57 52 48 43 41 35 46 43 50 55 55 58 62 62 61 64 63 64 65 63 61 61 58 57 55 55 54 52 50 49 48 46 45 44 45 45 46 47 49 51 49 48 46 46 46 46 44 44 42
52 45 35 33 31 38 46 42 52 53 55 57 62 65 65 59 58 60 59 59 58 57 57 56 55 53 52 52 51 49 49 47 47 46 45 44 45 45 47 48 48 47 47 47 46 44 44 44 42
48 49 40 30 31 42 42 37 51 57 61 63 63 64 65 62 56 57 59 59 57 57 56 56 54 53 53 52 50 50 50 48 47 47 45 45 45 46 48 48 47 48 47 47 46 43 43 43 42
47 41 53 42 48 34 45 46 54 55 54 57 57 58 60 65 54 56 55 57 57 56 56 57 54 54 53 53 51 50 50 47 47 47 46 45 45 48 47 47 47 47 47 46 45 43 43 43 42
51 52 40 36 32 32 41 37 44 50 54 59 57 58 58 59 54 53 55 56 56 57 57 58 56 55 53 53 53 52 51 50 49 46 46 46 46 46 47 47 46 46 46 46 44 43 43 41 42
49 44 43 43 40 37 35 42 53 57 61 61 59 58 58 59 56 53 53 54 55 56 56 56 55 55 53 53 53 52 51 50 48 47 47 46 46 46 46 47 47 46 46 45 43 42 42 41 42
54 49 44 39 37 37 42 44 54 52 56 56 57 58 58 55 56 53 51 51 52 53 55 55 55 55 54 53 52 51 51 50 47 47 47 47 46 46 47 47 46 46 46 45 43 42 44 42 41

GFSSGP_sfc_temp_012.txt.gz
Temp
78 76 72 70 62 57 51 55 60 60 61 64 67 66 63 62 62 54 70 75 77 76 77 79 82 82 82 82 82 82 82 82 82 82 82 82 82 82 81 81 81 81 81 81 81 81 81 81 81
74 77 70 63 56 50 52 57 59 62 65 66 68 65 62 59 67 67 68 76 78 77 76 77 82 82 82 82 82 82 82 82 82 82 82 82 82 81 81 81 81 81 80 80 80 80 80 81 80
75 76 67 59 53 52 52 58 61 65 66 66 63 63 63 62 67 68 71 76 76 74 75 77 82 82 82 82 82 82 81 81 81 82 82 81 81 81 81 81 80 80 80 80 79 80 80 80 80
70 69 65 58 53 57 58 60 64 64 65 66 64 59 62 67 69 71 73 74 73 73 74 79 81 82 81 82 81 81 80 80 81 81 80 81 80 80 81 80 80 80 80 80 79 79 79 79 80
66 64 57 54 55 58 59 64 64 62 63 64 64 59 59 67 67 71 72 73 71 72 74 77 82 82 81 81 81 80 80 79 79 79 79 78 79 79 79 79 79 79 78 79 79 79 79 79 79
63 62 54 51 55 60 60 65 66 64 62 62 61 59 60 63 67 69 71 70 72 72 74 77 81 81 81 81 80 80 79 78 77 77 77 77 77 77 78 78 78 78 77 76 77 76 77 76 77
60 57 54 53 54 57 63 65 62 63 61 62 63 58 57 60 66 68 69 70 71 72 72 73 74 78 80 80 79 79 78 77 76 75 75 75 75 75 76 76 76 76 76 75 75 75 75 75 75
59 57 52 51 54 57 63 66 68 65 62 63 66 59 56 63 67 67 67 68 73 71 70 68 67 68 68 70 78 77 77 76 75 74 72 71 71 72 74 73 74 74 74 74 74 74 73 73 73
62 54 49 54 55 60 63 64 65 64 62 61 64 61 62 66 64 62 62 67 69 69 66 64 63 62 63 65 72 74 75 73 71 69 69 62 56 58 61 71 73 73 72 72 72 71 71 68 68
57 50 54 61 60 60 63 64 64 63 58 59 59 62 61 62 62 63 61 63 62 62 62 61 60 61 61 67 57 57 61 56 56 55 54 54 54 59 62 66 69 70 69 69 69 68 66 62 57
55 53 58 63 65 65 63 61 65 61 56 62 63 63 61 59 60 63 64 65 64 63 62 61 59 59 60 58 54 53 53 53 54 54 53 53 54 53 53 52 52 52 61 55 57 55 56 55 55
54 61 62 63 66 63 62 64 62 61 66 66 66 63 62 60 62 62 63 62 60 60 62 61 60 59 57 55 54 53 53 52 52 53 54 52 51 51 51 51 51 51 51 51 51 51 52 53 53
55 59 64 66 65 64 63 62 62 61 65 62 63 63 61 64 64 65 65 64 61 61 61 60 58 57 55 55 53 53 53 52 52 52 53 52 51 50 51 50 50 50 51 51 50 50 50 50 52
59 60 62 62 62 62 61 60 59 60 64 63 61 60 61 64 64 63 59 59 57 63 61 59 58 55 55 53 53 52 52 52 52 51 52 53 51 50 51 50 50 50 50 50 50 49 49 49 49
61 56 57 57 58 60 60 57 57 62 59 60 58 57 59 63 61 63 65 63 63 60 61 58 57 55 54 53 53 51 51 52 51 51 53 53 52 51 50 50 49 49 50 51 51 50 49 49 51
54 51 45 54 56 60 61 52 59 59 58 59 57 54 57 60 62 64 66 65 62 61 57 58 63 56 53 52 51 51 51 50 50 50 51 53 53 52 50 50 49 50 50 50 49 48 48 48 47
47 42 43 49 57 55 56 49 56 56 55 56 55 56 57 60 61 60 61 64 61 63 59 57 56 55 53 51 50 50 50 49 49 49 50 52 53 53 50 49 49 50 49 48 49 48 47 47 47
41 41 43 44 52 51 50 49 57 56 54 55 57 54 54 57 61 65 62 62 62 61 59 59 56 55 52 49 48 47 48 48 48 49 50 52 52 52 50 49 49 49 49 48 47 47 47 46 45
46 43 44 48 54 50 49 52 56 61 52 54 55 55 55 58 65 64 61 61 57 55 56 57 55 53 52 48 48 45 46 46 46 48 51 51 51 52 50 48 49 48 48 47 47 46 45 45 43
48 44 45 49 53 51 49 52 58 60 56 59 59 59 59 60 62 59 60 59 58 57 58 58 58 54 54 55 46 48 46 46 48 48 49 51 51 51 50 49 48 48 47 46 46 45 43 43 43
47 44 46 47 50 51 48 51 54 54 58 55 59 63 65 62 62 62 59 59 60 59 57 58 58 55 55 53 48 45 46 45 46 46 47 49 50 50 50 49 47 47 46 46 45 44 44 42 42
43 51 52 49 43 41 47 42 47 52 56 53 56 58 60 62 63 64 62 59 59 61 60 60 59 56 55 52 52 48 47 44 45 46 47 48 50 50 50 49 48 47 45 45 45 47 43 42 41
47 54 50 48 42 39 42 39 53 49 48 53 57 57 59 62 62 62 62 63 62 63 59 60 58 56 56 53 54 52 45 46 45 45 47 46 47 49 49 49 48 46 45 45 45 44 43 41 41
54 49 46 41 39 33 44 41 49 51 52 55 58 60 61 62 60 60 63 64 62 62 60 58 56 56 56 54 53 53 50 46 44 43 45 44 45 46 48 49 47 47 45 45 45 45 43 42 40
50 43 33 32 30 35 46 41 52 52 51 55 58 62 65 61 57 56 56 58 60 58 57 57 56 54 54 54 52 52 51 49 48 47 46 44 43 43 45 46 46 45 46 46 45 44 43 42 41
43 43 34 29 28 34 40 36 50 52 56 56 59 59 59 60 61 55 56 56 58 56 56 56 55 54 53 54 52 52 50 49 49 48 45 45 45 46 47 46 47 47 47 46 44 43 42 42 41
44 39 47 41 45 37 43 46 56 57 55 55 56 57 58 61 61 55 55 53 54 55 55 55 54 55 53 54 53 51 50 48 48 46 46 45 45 48 47 47 46 46 46 45 44 42 42 41 40
48 49 39 37 30 30 38 37 43 51 55 55 50 53 56 59 62 59 53 52 54 55 55 55 56 55 54 53 53 52 51 50 49 47 46 45 45 46 46 46 45 45 45 45 43 42 42 40 40
44 44 42 42 43 33 28 36 46 39 44 47 50 54 54 55 58 59 59 51 51 52 54 54 55 55 53 53 53 52 50 49 48 48 47 47 45 45 46 46 46 45 45 44 42 41 41 40 40
47 43 43 31 30 31 29 32 46 47 50 52 52 53 54 55 55 56 53 49 48 50 52 53 54 54 53 54 52 51 51 50 48 48 47 46 46 45 46 46 45 45 45 44 42 41 43 41 40

GFSSGP_sfc_temp_015.txt.gz
Temp
80 80 79 76 71 68 62 64 70 68 70 74 76 73 72 72 70 67 77 81 82 82 83 84 82 82 83 83 82 82 82 82 81 82 82 81 81 81 81 81 81 81 81 81 81 81 81 81 81
79 79 74 71 67 62 64 67 67 70 72 73 74 72 71 70 74 74 77 81 83 83 84 84 82 82 82 82 82 82 82 82 82 82 82 81 81 81 81 81 81 81 80 80 80 80 81 81 81
80 80 74 68 63 63 64 67 70 72 72 73 71 73 72 71 75 77 79 82 83 82 83 83 82 82 82 82 82 82 81 81 82 81 81 81 81 81 81 80 80 80 80 80 79 79 80 80 80
77 77 74 68 64 67 68 71 71 69 71 73 72 70 73 78 77 80 82 83 82 82 83 82 81 81 81 82 81 80 81 81 81 80 80 80 80 80 80 80 80 79 79 79 79 78 79 79 79
74 72 67 64 65 68 70 72 71 69 72 72 72 70 70 77 78 80 80 81 81 81 82 84 82 81 81 81 80 80 81 79 79 79 79 78 79 79 79 79 78 78 78 78 77 77 78 78 78
70 71 65 62 64 69 71 73 72 71 72 70 70 69 72 75 76 78 80 80 82 81 81 84 82 81 81 81 80 79 79 78 78 77 77 77 77 78 77 78 77 77 77 76 76 76 76 76 76
69 66 63 63 63 66 71 73 72 72 71 71 73 70 72 73 76 78 79 80 80 81 81 83 84 82 80 80 79 79 78 77 77 76 76 76 76 76 76 76 76 76 76 75 75 75 74 75 75
66 66 62 62 63 65 71 71 74 73 73 72 75 72 72 76 75 76 77 77 78 79 80 81 82 83 82 82 78 78 77 76 75 74 73 73 73 74 74 74 75 74 74 74 73 73 72 72 72
69 63 60 62 61 67 70 70 73 73 72 70 73 73 74 75 74 73 71 72 74 76 77 79 79 80 80 80 79 77 76 75 73 72 70 69 71 72 74 73 73 73 72 72 71 70 69 68 69
66 60 62 67 67 68 70 70 72 71 68 69 70 73 70 72 71 70 69 69 71 73 71 77 77 77 78 76 75 74 72 71 71 70 69 70 70 71 72 71 70 70 70 69 69 68 67 68 70
63 61 63 68 69 70 70 68 72 69 65 72 72 75 69 69 70 71 72 73 72 74 72 74 75 75 74 72 71 71 70 69 69 69 69 69 68 67 68 66 67 67 66 67 68 68 68 66 67
62 65 66 68 70 69 68 70 68 67 75 75 75 72 69 68 68 71 72 72 72 72 72 73 74 72 72 70 70 69 69 69 69 68 68 68 67 67 67 66 66 65 66 66 66 66 66 66 66
63 65 67 68 67 68 69 67 68 66 73 73 71 69 69 71 71 73 75 75 74 71 72 72 72 73 72 70 68 68 68 69 68 67 67 67 66 66 66 66 66 65 66 66 66 66 66 66 67
64 65 65 66 67 67 66 66 66 68 71 70 70 70 71 70 71 72 71 72 72 73 73 73 71 73 71 69 67 67 67 67 66 65 66 66 66 66 65 65 64 65 66 66 66 65 65 65 67
65 61 62 63 65 66 65 63 62 72 70 71 69 72 70 69 71 71 72 72 72 73 74 71 70 70 70 70 67 65 65 65 65 65 66 65 65 66 65 65 65 65 66 66 66 65 66 65 65
60 60 54 62 62 65 67 58 68 68 68 68 70 71 67 69 70 73 74 73 74 74 71 71 70 68 69 67 66 66 65 65 65 65 65 65 64 65 64 64 64 64 64 64 64 64 63 63 64
54 53 51 55 62 61 61 58 64 65 62 64 67 68 67 68 69 72 73 73 74 73 71 69 69 68 67 67 65 65 65 64 64 65 65 64 64 63 64 64 63 63 63 64 64 62 63 62 62
50 50 51 50 59 57 56 55 62 67 63 65 68 69 66 67 70 74 71 73 73 72 72 70 69 69 67 65 64 63 62 63 63 64 64 65 63 62 63 62 62 63 62 62 62 62 62 61 60
53 50 50 56 60 57 57 58 61 65 62 62 65 68 67 69 74 74 72 72 71 70 70 69 67 67 64 61 60 60 60 60 60 62 64 63 62 62 62 62 62 61 62 61 61 61 60 60 60
52 50 50 54 57 55 54 55 61 63 64 67 66 68 70 72 72 71 70 70 69 70 69 69 67 65 64 64 64 65 64 61 62 60 61 61 61 62 62 62 61 61 60 59 59 59 58 59 59
50 49 50 51 55 56 52 54 59 62 65 66 66 68 71 71 72 73 69 68 67 68 66 68 68 66 65 64 61 57 59 57 58 58 59 59 61 61 63 62 61 61 60 59 58 58 57 57 58
46 54 54 52 49 46 56 46 58 63 65 61 63 65 67 69 70 70 70 66 67 66 67 68 68 67 65 63 60 59 60 59 60 61 59 59 61 61 61 61 61 61 60 59 58 58 58 57 56
52 55 52 51 48 47 50 47 60 62 60 65 70 69 65 67 69 70 70 69 69 70 68 67 67 66 65 61 62 60 62 63 60 58 58 60 60 61 60 61 60 60 59 60 59 58 57 57 57
57 55 51 46 47 40 51 49 53 59 60 63 68 68 68 69 69 67 69 68 69 68 67 64 65 64 63 60 61 60 60 59 57 58 58 58 58 58 60 59 60 60 59 58 58 58 57 57 56
55 48 39 39 37 39 49 48 55 61 66 65 65 65 62 64 65 65 65 66 66 65 63 62 62 61 62 60 61 61 61 60 60 58 59 56 56 56 57 58 58 58 57 58 57 57 57 56 55
50 49 42 34 37 42 49 43 54 62 62 58 58 58 60 61 63 63 64 65 65 64 63 62 62 61 62 60 60 62 61 60 62 59 59 58 58 59 59 58 59 59 58 58 57 56 56 56 55
49 46 51 43 46 40 46 52 59 65 56 54 56 58 59 60 61 61 62 64 65 62 63 62 61 61 61 60 61 62 61 60 59 58 59 59 59 58 57 58 57 58 58 58 57 56 56 56 56
50 51 40 42 32 31 41 44 46 54 47 52 54 56 57 58 59 59 60 62 65 62 62 62 63 61 60 61 62 61 60 61 60 59 57 57 58 59 57 56 57 57 57 57 56 55 56 54 55
44 42 44 43 40 30 30 38 46 47 50 51 54 56 56 56 56 57 60 62 62 60 59 60 61 60 60 60 61 60 59 60 60 59 58 58 58 58 57 56 56 56 56 56 56 55 55 53 54
47 42 41 29 28 31 27 26 50 51 53 53 53 56 57 57 57 57 59 59 60 60 58 58 59 59 59 59 59 59 59 59 59 59 59 59 57 57 57 57 56 56 56 56 55 54 56 54 52

GFSSGP_sfc_temp_018.txt.gz
Temp
87 91 92 86 76 78 73 73 80 76 78 85 86 82 80 82 79 73 85 90 91 90 92 89 82 82 83 83 82 82 82 81 82 82 82 82 81 81 81 81 81 81 81 81 81 81 81 81 81
89 83 87 85 74 70 73 78 75 80 83 84 83 82 81 80 84 83 84 89 91 92 93 92 82 82 83 82 82 82 82 82 81 81 81 81 81 81 81 81 80 81 80 80 80 80 81 81 81
88 89 83 80 77 71 73 78 80 82 83 83 81 83 83 81 84 87 91 91 92 92 92 90 82 82 82 82 82 82 82 82 81 81 80 81 81 80 80 80 80 80 80 79 79 79 80 80 80
87 87 88 76 73 77 78 82 83 80 80 82 84 80 84 89 87 91 92 92 92 92 92 84 82 82 82 82 82 81 81 81 80 80 80 80 80 80 79 79 79 79 79 78 78 78 79 79 79
90 87 77 74 75 79 82 82 83 80 82 82 83 81 81 86 89 91 91 92 91 92 92 90 82 81 82 81 81 81 80 80 79 79 79 79 80 79 79 78 78 77 77 77 77 77 78 78 78
83 85 75 71 76 80 83 84 83 83 84 82 80 80 84 88 87 89 91 91 93 92 91 91 82 81 81 81 80 80 79 79 78 78 78 78 78 78 78 77 77 76 76 76 76 76 76 76 77
80 79 74 75 74 77 81 86 83 84 84 83 85 80 86 85 89 91 92 93 92 93 91 92 89 84 80 80 79 79 78 78 77 77 77 77 77 77 76 76 76 76 75 75 74 74 74 74 74
83 80 75 76 74 75 83 82 84 85 84 85 87 81 83 90 90 90 91 91 91 91 91 93 92 88 87 86 79 78 78 77 76 76 75 75 75 75 75 75 75 75 74 73 73 72 72 72 72
79 74 71 74 74 78 82 79 83 85 85 82 85 87 86 89 88 87 87 88 88 88 91 93 92 91 90 89 83 78 77 76 74 74 72 74 82 80 79 73 73 73 72 72 71 71 71 72 71
78 72 75 80 81 79 83 81 85 79 82 81 84 88 84 87 85 84 84 84 85 84 88 91 91 90 90 88 86 87 84 84 84 82 81 83 81 81 79 73 71 71 70 70 70 70 72 76 80
75 72 76 78 79 79 79 78 81 79 79 84 85 88 85 84 84 85 86 86 86 87 86 87 90 89 88 86 86 86 84 83 83 82 82 82 79 78 79 76 77 76 72 79 77 77 77 76 77
71 76 75 77 78 77 77 81 78 80 83 87 87 89 88 83 84 84 85 87 88 87 86 84 88 87 87 85 84 85 84 83 83 81 82 80 79 79 79 79 76 76 78 76 77 77 75 75 76
72 75 76 78 77 77 79 75 78 80 85 89 87 81 84 84 86 87 89 90 90 87 86 84 86 87 87 84 84 84 84 83 83 81 80 81 78 78 78 77 77 76 77 78 77 77 77 76 76
73 74 75 77 77 78 74 76 78 81 85 85 86 85 86 85 87 87 87 88 89 89 87 86 85 87 87 84 83 82 82 82 80 79 79 79 79 78 77 76 75 76 77 78 78 77 77 76 77
74 69 75 77 77 74 76 71 73 83 85 84 85 88 88 87 87 87 88 87 90 90 88 87 85 86 86 84 82 81 80 79 78 78 78 78 77 78 77 76 76 76 77 76 77 76 77 76 76
70 72 66 73 71 74 73 68 80 81 80 80 84 86 86 88 87 89 90 90 90 91 88 87 84 84 85 84 82 81 80 79 78 79 78 77 75 77 76 75 74 75 74 74 74 74 73 74 75
67 66 67 69 73 71 70 69 79 77 77 77 83 86 87 86 87 89 90 90 89 89 89 87 85 82 83 84 82 81 80 78 79 79 77 75 74 75 75 74 73 73 72 73 72 72 73 72 72
65 65 68 65 72 69 67 67 74 79 79 77 79 83 85 87 88 91 91 89 89 89 89 88 86 82 83 82 81 79 78 77 78 78 77 76 73 73 74 73 72 72 70 70 70 70 71 71 71
65 63 62 68 73 68 66 67 71 77 77 76 78 80 84 87 92 93 93 90 87 87 87 86 84 82 83 78 76 75 73 74 75 75 76 75 74 72 72 71 71 70 69 70 70 69 67 69 70
63 61 62 68 71 67 67 66 71 75 76 78 78 80 82 85 88 90 91 88 86 86 86 86 84 82 82 78 78 77 76 76 75 73 73 73 73 72 71 70 69 70 69 68 67 66 66 68 69
62 60 62 62 67 68 66 65 75 79 77 79 80 82 82 82 83 86 87 87 84 83 84 84 84 82 81 78 77 76 77 74 71 70 70 71 72 71 71 71 71 70 69 67 67 66 64 65 66
58 65 62 60 58 56 65 54 69 76 75 77 81 83 81 78 79 78 78 80 82 82 82 84 83 83 80 77 75 72 70 66 69 70 70 70 71 70 70 71 71 70 69 68 67 67 66 64 63
61 63 61 60 58 58 60 54 68 76 71 73 75 71 71 73 73 74 75 76 79 79 80 81 81 81 80 78 74 71 70 72 73 72 69 69 69 71 70 71 70 69 69 69 68 66 66 65 65
65 62 62 59 56 48 61 58 62 67 68 72 70 69 70 71 72 72 74 74 75 76 75 77 77 77 79 76 74 70 70 73 74 71 68 68 68 69 69 69 69 69 68 67 66 66 66 65 65
63 59 51 50 48 50 59 56 62 71 68 64 63 66 68 69 69 69 69 69 71 72 73 73 74 73 76 75 73 71 71 74 73 70 69 68 68 66 67 68 68 67 66 66 66 65 64 64 63
57 55 50 40 46 50 59 49 61 74 75 68 67 67 67 67 68 68 68 68 69 71 72 71 72 73 73 74 72 72 72 73 74 71 71 70 69 68 68 67 68 68 66 66 65 64 64 64 63
56 51 55 47 51 45 51 59 68 72 67 62 63 64 62 65 66 67 68 69 69 70 71 70 70 72 72 73 73 71 73 72 71 72 72 71 71 69 67 67 66 67 66 66 65 64 63 63 64
56 58 44 48 36 37 48 49 50 55 54 59 59 60 61 62 63 66 67 67 68 69 70 71 71 70 72 72 72 71 71 72 71 73 71 69 70 69 66 65 66 66 66 65 64 63 64 64 63
49 47 47 46 44 35 32 40 56 52 56 56 57 58 58 59 61 63 65 66 67 68 69 70 70 69 70 71 71 69 70 71 72 71 71 69 69 68 66 65 65 64 64 65 64 64 64 62 62
50 43 45 35 33 38 35 33 56 57 58 58 57 56 57 59 60 62 64 65 65 66 67 67 68 68 68 69 69 68 69 70 70 70 71 70 68 67 67 66 65 65 64 65 64 63 64 62 60

GFSSGP_sfc_temp_021.txt.gz
Temp
88 96 98 88 74 76 68 74 84 80 82 90 90 87 85 87 82 73 88 94 95 93 93 88 82 82 83 82 82 82 82 81 81 81 82 81 81 81 81 81 81 81 81 81 81 81 81 81 81
93 91 90 85 74 64 64 82 78 83 87 90 89 87 86 84 90 87 87 93 96 95 95 92 82 82 83 82 82 82 82 81 81 81 81 81 81 80 80 80 80 80 80 80 80 81 81 81 81
92 93 84 79 78 69 69 82 84 86 88 87 86 89 89 86 90 93 96 94 96 95 95 88 82 82 82 82 82 81 81 81 81 80 81 81 80 80 80 79 80 80 78 79 79 80 80 80 80
90 89 89 76 74 78 80 86 87 85 87 89 89 85 90 95 92 97 96 96 96 95 95 83 82 82 81 81 81 81 81 80 81 80 80 80 80 79 79 79 79 78 78 78 78 78 79 79 80
92 88 77 76 77 84 87 88 88 85 86 87 88 85 86 92 95 97 95 96 95 95 95 90 82 82 81 81 81 81 81 80 79 79 79 80 79 79 78 78 77 77 77 77 77 77 78 78 79
83 87 75 73 78 86 88 90 89 87 89 88 85 86 88 95 92 94 96 96 97 95 94 91 82 81 81 81 81 80 80 79 79 78 78 79 78 78 77 77 77 76 76 76 76 76 76 76 77
80 80 74 77 77 81 86 92 87 87 88 88 91 84 91 91 94 95 96 98 97 97 94 94 90 83 80 80 80 80 79 78 78 78 77 78 77 77 76 76 76 76 75 75 74 75 74 74 74
83 81 75 78 76 76 88 87 90 88 87 94 93 84 87 94 95 96 97 97 97 96 95 96 92 85 86 84 79 79 78 78 77 77 76 76 76 75 75 75 75 74 74 73 73 73 73 73 73
86 75 73 76 78 80 90 84 92 92 88 92 92 91 93 96 95 94 93 93 94 94 95 96 95 90 90 89 83 79 78 77 76 75 75 75 83 81 79 73 73 73 72 72 72 72 73 73 73
80 74 76 84 83 81 85 86 86 87 86 88 91 95 93 93 92 90 90 90 91 92 93 96 96 94 92 91 86 85 83 82 82 82 79 86 84 82 79 74 72 72 71 71 72 72 74 77 82
82 74 83 82 84 83 82 83 88 84 79 87 88 92 95 90 90 90 91 93 93 93 92 94 96 95 92 90 88 88 87 87 87 87 86 86 82 78 81 75 76 75 73 79 78 79 78 78 79
74 83 82 81 83 80 79 85 83 84 84 92 93 93 93 90 90 90 91 93 93 93 91 92 94 93 93 91 88 90 88 87 86 85 86 84 82 81 81 81 78 77 79 78 78 78 77 77 79
77 81 82 83 82 81 82 79 80 81 88 93 93 92 89 92 91 93 94 95 95 93 92 92 92 94 92 90 88 88 87 87 87 85 85 84 82 81 81 80 79 78 78 79 78 78 78 78 78
80 78 79 81 81 82 78 79 81 84 90 89 90 90 92 90 91 92 93 93 94 95 94 93 90 92 93 90 88 86 86 86 86 84 83 84 83 82 80 79 78 78 79 79 79 78 77 77 78
78 72 78 81 83 80 81 74 76 87 89 87 89 92 92 92 93 92 93 93 95 97 96 95 91 91 92 90 88 85 85 85 84 82 82 82 82 82 80 79 78 79 79 79 78 78 77 75 76
74 76 69 80 78 79 75 68 83 88 85 84 88 91 91 92 94 97 96 95 97 97 96 96 92 90 90 89 88 86 85 83 83 82 81 81 80 81 80 78 77 78 77 75 75 74 73 74 74
76 68 71 74 80 76 74 68 80 86 84 82 85 87 89 91 95 96 97 97 96 97 96 95 93 90 88 89 89 87 85 83 82 82 81 80 78 79 78 77 77 76 74 74 73 73 73 72 72
67 68 71 69 78 76 73 72 78 83 82 82 84 87 88 89 91 96 98 98 97 97 96 95 95 92 89 88 88 86 84 83 83 82 81 80 77 77 77 76 75 75 72 72 71 72 72 71 71
70 67 66 72 77 73 70 71 75 80 82 81 83 85 86 88 92 95 96 98 98 95 94 94 92 93 89 85 84 82 79 80 80 80 81 79 77 75 75 74 74 73 71 71 71 71 69 68 70
67 65 66 72 77 72 70 69 75 79 81 82 83 84 85 86 88 84 86 86 86 92 92 92 92 91 90 85 84 84 82 81 79 78 78 78 77 75 74 73 72 71 70 70 69 68 67 68 69
67 65 66 65 68 71 70 68 75 83 84 83 80 78 78 77 77 78 80 80 81 82 82 86 88 90 90 87 84 81 82 79 76 75 74 75 76 74 74 73 73 71 70 68 67 67 65 64 67
61 67 65 63 61 57 71 54 68 77 78 73 73 73 73 73 75 75 76 75 78 78 79 80 82 86 88 88 83 78 76 74 75 74 73 73 75 75 73 74 73 72 71 69 68 69 66 65 64
61 67 63 63 61 60 62 59 70 75 70 70 70 69 71 72 72 72 74 74 76 76 76 78 78 80 84 86 83 77 75 77 77 75 72 73 73 74 72 73 72 71 70 70 69 68 66 66 65
68 65 66 66 62 51 64 62 65 69 69 66 69 70 70 70 71 72 74 74 74 75 74 76 76 76 78 80 82 78 74 74 74 73 71 71 71 71 72 72 72 71 70 69 68 68 67 66 66
65 60 52 53 49 52 66 59 65 73 67 65 65 68 69 69 69 68 69 71 72 72 73 75 74 73 75 77 78 80 75 74 75 74 72 70 69 68 69 71 70 69 68 68 68 66 66 66 64
58 58 50 42 49 53 60 51 64 74 70 70 69 69 69 67 66 67 68 70 71 71 72 72 73 72 74 75 76 78 78 74 74 75 75 72 70 69 70 70 70 70 69 68 67 65 65 65 64
59 53 57 48 52 47 54 62 70 74 65 64 63 64 65 65 64 65 67 68 70 70 70 71 72 72 73 74 75 76 78 76 72 74 78 73 73 72 70 69 68 70 69 67 66 65 64 64 64
60 60 46 51 39 40 52 52 53 56 55 58 59 61 64 64 64 65 66 67 69 70 70 71 72 72 72 72 74 74 75 77 75 74 75 72 73 71 69 68 68 68 68 67 65 64 65 64 63
54 51 52 51 47 39 36 44 61 54 56 55 59 61 62 62 62 63 65 67 68 69 70 70 69 70 71 70 71 71 73 74 74 74 74 74 73 72 69 68 67 67 67 67 65 64 64 63 63
55 51 48 39 37 41 38 36 58 58 58 59 59 61 62 62 62 64 65 66 67 67 68 68 68 68 69 69 69 70 71 71 71 73 74 75 73 72 69 68 67 67 66 66 65 64 65 63 61

GFSSGP_sfc_temp_024.txt.gz
Temp
85 92 88 81 66 66 63 62 79 76 80 85 87 84 79 82 76 63 80 87 88 86 84 83 82 82 82 82 82 82 82 81 81 81 81 81 81 81 80 81 81 81 81 81 81 81 81 81 81
85 92 82 75 65 60 61 73 75 79 84 85 85 84 82 78 86 79 79 89 90 89 86 83 82 82 82 82 82 82 81 81 81 81 81 80 80 80 80 80 80 80 80 80 80 80 81 81 81
86 92 75 69 68 63 61 71 78 84 86 85 82 85 80 79 87 83 87 90 91 89 88 83 82 82 82 82 81 81 81 81 80 81 81 80 80 80 80 80 80 78 79 79 79 80 79 80 80
84 80 78 68 67 72 64 79 83 84 85 86 86 80 85 89 86 88 90 91 90 88 84 81 82 82 81 81 81 81 81 81 80 80 80 80 80 79 79 79 78 77 77 78 78 79 79 79 80
82 77 68 68 71 78 82 85 84 81 83 84 84 79 79 86 91 90 89 92 89 88 83 82 82 81 81 81 81 81 80 80 79 80 80 79 79 78 78 78 77 77 77 77 77 78 78 79 79
72 77 66 64 71 79 84 86 85 83 85 86 82 80 78 86 86 87 90 88 91 89 86 83 81 81 81 81 81 80 80 79 79 79 79 79 78 78 77 77 77 76 76 76 76 76 76 78 78
72 68 65 68 69 74 81 87 82 81 82 83 87 75 79 81 84 89 88 90 90 90 87 83 80 80 80 80 81 80 79 79 78 78 78 78 77 77 76 76 76 75 75 74 75 75 75 75 75
73 71 68 68 68 70 82 85 85 82 80 91 88 75 73 82 87 88 89 88 88 87 87 85 82 79 78 77 80 79 79 78 78 77 77 77 76 76 76 75 75 74 74 74 73 74 74 74 74
81 64 61 66 69 72 82 79 86 88 81 84 86 83 84 87 88 85 84 85 85 87 86 86 83 80 80 78 78 78 78 78 77 75 76 74 68 70 69 73 74 73 73 73 73 73 73 74 75
71 63 67 77 76 73 78 78 80 80 79 79 82 87 86 87 84 82 80 80 82 82 83 86 85 82 83 84 76 74 74 70 69 69 67 68 69 69 71 70 73 73 73 73 73 74 75 75 67
74 65 75 77 79 79 76 76 81 76 71 78 77 82 83 81 81 82 82 83 82 83 83 85 85 85 84 83 75 77 76 73 72 71 68 69 68 65 65 61 63 61 69 64 67 67 65 67 66
69 76 78 78 79 77 73 78 75 75 75 82 83 84 83 81 81 81 81 83 84 84 83 84 84 83 83 81 78 78 78 77 74 71 72 68 65 65 65 63 63 63 63 65 64 63 64 65 68
73 75 80 80 78 76 78 73 73 74 80 83 85 84 81 80 80 83 85 86 86 83 82 83 83 83 84 81 79 78 76 75 72 71 71 68 66 66 66 64 64 63 64 64 63 63 64 64 65
76 75 75 77 77 77 75 73 74 76 81 82 82 80 80 81 81 81 82 82 83 84 84 85 85 85 83 81 77 78 73 72 71 69 69 71 67 66 65 65 64 63 64 64 64 63 62 62 62
76 68 71 74 77 75 75 67 69 78 82 80 79 79 80 81 82 81 83 82 84 86 85 86 85 84 83 82 79 76 71 72 68 67 70 70 68 67 66 64 63 63 64 65 64 63 62 62 65
70 69 60 74 75 72 72 58 71 79 77 75 76 76 77 80 82 83 84 84 84 84 84 85 88 84 84 80 77 75 72 69 68 67 67 69 69 68 65 64 63 63 63 62 61 60 59 59 59
66 58 63 68 77 73 69 61 72 78 77 75 74 75 77 77 80 82 83 83 84 84 84 84 82 83 82 82 77 75 74 70 68 67 66 67 68 68 64 63 62 63 61 60 61 59 59 57 57
59 60 63 61 70 72 66 65 72 75 75 72 73 73 74 76 75 77 77 78 80 81 82 82 82 82 82 81 78 73 72 69 69 68 67 68 65 66 64 62 62 61 59 58 58 58 58 57 57
64 61 60 65 73 68 64 65 69 74 73 70 70 72 70 72 74 75 75 75 76 77 76 74 76 80 79 78 76 70 67 67 67 67 69 67 65 65 63 60 61 59 58 57 59 58 57 55 56
63 60 60 66 71 66 63 62 68 72 70 68 67 66 67 68 70 71 72 72 72 72 72 74 74 74 76 75 77 78 73 68 67 65 67 67 67 65 64 60 59 59 57 58 57 57 54 55 55
63 60 60 58 63 65 62 59 63 67 68 68 67 66 66 65 66 67 68 69 70 69 70 71 72 73 73 74 73 70 69 66 63 66 68 67 67 66 66 62 60 59 57 55 55 55 54 51 53
55 65 62 59 55 47 62 44 57 63 62 63 63 62 63 64 66 66 66 66 68 68 68 69 71 72 74 72 70 69 71 68 69 67 67 64 66 66 65 64 61 61 57 56 56 58 54 53 50
58 64 60 58 54 53 55 48 57 63 57 59 61 63 63 63 63 63 64 66 68 68 65 67 69 68 68 69 69 67 69 71 68 68 64 66 66 66 66 65 63 61 60 57 57 56 55 53 51
66 61 59 58 54 43 54 53 54 56 56 58 61 62 63 62 61 62 64 66 66 67 63 63 66 65 66 65 65 67 67 69 68 65 65 64 64 65 65 66 64 62 61 58 58 56 55 53 53
60 52 42 42 40 42 57 51 52 57 59 58 57 59 61 62 60 60 61 62 63 63 64 64 64 63 67 66 63 65 67 68 69 69 67 62 63 63 64 64 63 62 60 57 56 55 54 54 52
53 51 42 34 39 42 54 43 52 60 60 60 60 59 59 59 58 59 59 60 62 63 64 64 62 62 66 67 63 64 67 67 68 69 68 66 64 64 65 64 64 63 59 58 56 53 53 54 52
54 47 52 43 47 40 46 54 59 58 56 56 56 58 57 58 57 58 59 60 60 63 63 65 63 63 64 66 67 64 66 67 65 67 69 68 67 66 64 64 63 63 61 59 55 54 53 53 52
55 57 42 43 32 31 42 43 44 47 49 53 54 55 57 59 59 60 61 61 62 64 64 65 62 62 64 65 67 66 65 66 66 67 67 67 66 65 64 62 63 61 61 59 56 53 53 52 51
49 47 48 46 42 31 30 37 51 49 50 51 54 56 56 55 56 58 59 60 62 63 63 62 63 62 61 62 64 64 64 64 66 66 63 66 67 66 63 63 62 61 60 60 57 55 54 53 51
52 48 48 34 33 35 30 32 54 52 53 55 55 57 56 56 56 58 58 59 60 60 60 61 62 63 61 59 60 62 63 63 64 63 63 63 65 67 65 63 62 62 61 60 58 56 57 54 51

GFSSGP_sfc_temp_027.txt.gz
Temp
82 83 78 74 61 59 58 61 71 69 72 75 79 76 72 73 71 60 75 80 80 78 80 81 82 82 83 82 82 82 81 81 81 81 81 81 81 80 80 81 81 81 81 81 81 81 81 81 82
80 84 75 67 57 53 60 69 71 72 77 79 80 77 74 71 77 75 74 83 82 80 80 80 82 82 82 82 82 81 81 81 81 80 80 80 80 80 81 80 80 80 80 81 80 80 81 81 81
81 84 68 62 58 59 60 70 72 77 81 79 76 77 74 74 78 76 79 84 83 81 81 81 82 82 82 82 81 81 81 80 80 80 80 80 80 80 80 80 78 78 80 80 80 79 80 80 80
77 73 69 60 59 65 69 73 76 77 78 82 78 73 77 80 78 80 85 85 81 82 80 81 81 81 81 81 81 81 80 80 80 80 80 80 79 79 79 78 78 77 78 78 79 80 79 79 80
73 68 60 58 62 70 72 78 77 74 76 79 79 72 73 79 82 84 85 86 79 78 79 80 82 82 81 81 81 81 80 80 80 80 79 79 79 78 78 77 77 77 77 77 78 78 79 79 79
65 66 56 53 60 69 70 76 77 74 76 80 75 72 71 79 79 81 83 83 82 79 80 81 81 81 81 81 81 80 80 79 79 79 79 78 78 78 77 77 76 76 76 76 76 76 77 79 79
63 60 56 58 61 66 73 77 72 72 73 74 78 69 68 72 79 82 82 81 82 81 79 79 79 80 80 81 81 80 80 79 79 79 78 78 77 77 77 76 76 75 75 75 75 75 75 76 78
66 62 57 56 60 62 73 77 80 76 73 80 79 69 65 75 81 82 81 81 80 80 78 75 76 77 75 76 80 80 79 79 78 78 78 77 76 76 76 75 75 75 74 74 74 75 75 75 75
71 56 52 57 62 65 72 71 77 78 74 78 76 74 80 81 81 78 76 77 78 80 77 75 75 74 75 74 77 79 79 78 78 76 77 74 66 67 68 72 74 74 74 74 74 74 74 75 75
62 53 58 68 66 65 71 70 71 72 71 71 74 76 77 78 75 75 74 76 75 76 76 76 75 74 74 79 75 71 73 69 67 67 66 65 63 63 67 70 73 74 74 74 74 75 75 73 64
64 58 66 70 72 71 69 69 72 68 65 69 70 75 77 73 73 75 75 75 75 77 77 76 76 76 76 77 73 72 70 66 65 64 63 62 64 63 61 59 63 60 70 63 66 64 63 64 62
62 69 70 70 74 72 68 71 68 69 70 73 74 74 72 74 74 74 74 75 75 76 79 79 78 77 78 76 72 72 71 69 67 66 65 61 59 59 58 57 57 57 58 58 59 59 61 62 63
63 66 71 71 70 70 72 67 67 69 73 75 77 77 74 72 73 75 76 77 77 76 76 78 78 78 79 73 73 73 72 71 70 68 67 63 60 59 59 57 57 57 58 59 58 59 60 60 61
66 67 67 69 69 69 69 66 66 70 73 74 74 73 73 74 75 74 74 76 76 77 76 79 80 79 77 75 74 74 71 72 68 66 66 64 62 61 59 58 59 58 59 59 59 59 58 59 59
69 62 62 65 67 67 69 62 65 71 72 69 70 64 67 71 75 71 72 73 76 76 77 78 80 81 76 75 75 73 70 70 67 65 66 65 63 62 60 59 58 58 59 60 59 58 58 57 59
60 57 51 65 69 66 66 54 66 72 68 69 70 68 71 64 69 69 72 71 71 72 73 75 84 82 81 73 75 76 72 70 68 64 63 65 64 63 60 59 58 59 58 58 57 56 55 55 55
54 48 52 58 67 65 62 56 64 70 70 67 65 65 66 66 67 68 70 70 70 70 71 72 73 74 79 77 72 75 73 70 68 65 64 64 64 64 60 59 58 58 57 56 57 55 55 54 54
47 48 53 51 62 64 59 57 63 66 66 62 63 63 63 63 64 68 69 70 70 70 70 70 71 72 73 73 69 67 67 65 65 66 66 65 62 63 60 58 58 57 55 55 54 55 54 54 54
55 52 51 56 64 58 56 56 63 64 60 58 58 58 59 60 64 67 68 68 69 69 69 69 68 69 69 70 70 65 67 68 64 65 68 66 65 63 60 57 57 56 57 55 55 53 54 52 52
57 52 50 56 62 59 55 56 58 60 58 58 57 57 58 60 61 63 65 66 66 65 67 68 68 68 65 65 66 68 70 66 71 67 66 66 66 64 61 59 57 56 54 54 54 53 50 51 51
54 51 50 50 55 56 53 49 53 57 59 61 58 58 58 57 58 60 61 62 64 64 62 65 67 67 67 64 62 68 69 68 63 60 61 63 66 64 65 60 59 57 56 56 52 52 52 49 49
48 57 56 54 48 41 54 37 48 52 53 55 53 53 53 55 58 60 60 60 61 63 64 62 64 64 68 66 64 58 57 61 67 64 67 65 65 65 65 63 60 59 57 54 56 55 51 50 49
52 58 54 53 46 42 47 40 42 52 48 50 52 55 53 54 56 56 57 58 59 60 61 62 60 61 62 63 63 60 56 57 64 67 64 65 60 64 65 63 61 60 57 59 54 53 52 50 49
61 54 52 48 43 35 46 45 42 44 45 48 50 53 54 55 54 56 56 58 57 58 58 58 59 59 60 59 60 61 60 58 59 63 61 60 64 61 63 63 63 62 60 56 56 55 52 51 49
53 43 33 35 34 35 49 44 39 46 49 50 50 51 53 54 51 54 54 55 56 56 59 59 59 57 58 58 58 60 60 57 58 60 63 59 60 62 59 63 61 59 60 59 57 54 54 52 52
46 44 34 28 29 34 47 38 41 51 52 51 52 52 53 53 52 52 53 54 54 56 58 57 61 55 57 57 57 59 57 58 60 60 61 63 62 63 65 62 63 63 60 59 57 56 55 53 51
47 40 46 37 38 31 37 43 46 49 48 49 50 51 51 52 52 52 54 54 53 54 55 56 55 56 60 56 57 57 56 57 59 60 62 62 64 64 63 62 62 62 59 59 58 56 55 55 52
48 51 37 35 26 24 32 36 37 41 43 49 50 51 51 51 50 51 52 54 55 58 58 55 56 55 56 58 59 58 55 56 58 60 60 61 63 61 63 62 62 61 60 59 57 56 55 53 50
43 40 41 38 34 25 22 29 41 40 46 48 51 53 53 50 51 51 53 53 54 54 53 54 55 55 56 60 56 54 54 55 56 58 59 61 61 62 64 63 61 60 59 58 57 56 54 54 51
47 41 40 26 28 28 20 28 45 47 50 52 51 53 51 50 51 51 51 52 51 51 52 53 54 55 56 54 55 56 57 56 54 54 58 59 59 63 64 62 62 61 61 59 58 55 56 54 51

GFSSGP_sfc_temp_030.txt.gz
Temp
81 81 75 72 61 60 57 63 66 67 68 73 77 76 71 71 69 59 72 78 77 76 79 81 82 82 82 82 82 81 81 81 81 81 81 81 80 81 81 80 81 81 81 81 81 81 81 81 81
78 82 73 65 56 53 56 63 66 69 76 76 78 74 70 69 74 72 71 77 78 78 79 79 82 82 82 82 81 81 81 80 80 80 80 80 80 80 80 79 81 81 81 81 80 80 80 81 81
80 81 67 60 56 54 59 68 69 74 77 76 74 75 73 72 76 74 75 78 79 78 79 79 81 81 82 82 81 81 80 80 80 80 80 80 80 80 79 79 80 81 81 81 79 79 80 80 80
74 71 67 59 56 62 64 70 73 73 76 78 74 70 73 78 76 77 79 80 77 77 78 80 81 81 81 81 81 80 80 80 80 80 79 79 79 80 79 78 79 79 79 80 80 79 79 79 79
70 65 58 55 58 65 69 73 73 71 72 75 74 69 70 78 78 79 81 81 76 76 78 80 81 81 81 81 81 80 80 80 80 79 79 79 79 78 78 77 77 78 78 79 78 79 80 79 79
64 63 55 51 58 65 68 72 73 70 70 75 73 69 69 75 76 78 81 77 79 77 78 79 81 81 81 81 81 80 80 79 79 79 79 78 78 78 77 77 76 76 76 77 77 78 79 79 78
62 58 54 54 58 62 68 72 68 68 69 70 75 66 67 72 76 79 78 75 78 78 78 78 79 79 80 80 80 80 80 79 79 79 78 78 77 77 77 76 76 76 76 76 75 76 78 79 77
63 59 54 54 56 59 69 72 73 72 70 78 76 66 63 74 77 77 77 74 74 76 77 76 76 77 76 77 80 80 80 79 79 78 78 77 77 76 76 76 75 75 75 75 75 75 75 75 75
66 55 51 56 58 63 68 68 72 74 69 72 74 70 76 76 76 74 72 72 74 75 73 74 74 73 74 73 77 79 79 79 78 77 77 75 65 67 70 71 75 75 75 75 75 75 75 75 75
60 52 57 64 63 63 67 65 68 68 65 65 70 75 76 74 72 73 71 71 70 72 72 72 72 72 72 77 74 72 75 71 69 68 67 64 62 62 67 70 74 74 74 74 75 75 75 73 63
61 56 62 67 69 68 67 67 69 64 62 65 66 71 74 69 69 72 72 72 73 74 73 73 72 72 72 75 72 69 68 66 66 65 63 62 63 61 61 59 62 59 70 61 65 63 61 61 60
58 66 66 68 69 68 66 69 65 67 68 71 71 70 71 71 71 72 71 73 73 72 74 74 74 72 72 74 71 71 69 67 65 64 63 60 58 58 57 56 56 56 57 56 56 56 58 59 60
60 63 68 69 67 66 67 65 63 67 71 70 71 72 68 67 67 68 69 72 73 72 75 74 74 73 73 72 71 70 69 69 68 65 63 60 58 57 56 55 55 54 54 55 55 55 57 57 58
63 64 64 66 65 66 65 63 65 69 69 70 69 65 61 63 64 66 66 65 65 68 70 73 74 75 75 73 71 70 70 69 67 66 65 63 62 60 57 56 56 55 54 55 55 56 56 56 56
65 59 61 63 65 64 64 59 61 69 67 68 65 59 62 63 65 63 65 65 65 66 69 69 73 73 74 73 71 71 70 70 67 66 66 65 64 62 60 57 55 55 55 57 55 55 54 54 56
57 55 50 62 64 66 63 51 63 67 64 63 58 56 61 62 62 61 65 66 66 67 67 70 73 69 70 70 69 71 70 69 68 67 65 66 64 64 60 58 57 56 56 55 54 53 53 53 53
51 45 48 55 63 62 59 54 61 65 64 57 55 56 60 59 61 62 64 63 65 65 66 67 68 69 69 67 67 67 68 65 66 65 65 66 65 64 62 60 59 56 55 54 54 53 52 51 51
44 45 50 49 59 60 56 52 55 58 57 55 52 52 56 57 58 60 62 62 63 62 64 66 66 65 69 69 68 67 65 66 64 64 66 66 65 64 63 59 58 56 54 53 52 53 51 51 52
51 48 48 52 60 55 52 49 52 55 55 53 51 51 52 54 58 59 61 62 62 62 60 60 63 61 64 65 65 65 63 67 67 66 65 65 64 64 62 59 58 56 56 56 53 52 52 50 49
52 48 47 53 58 55 52 47 52 54 52 53 51 50 51 52 54 56 57 58 59 58 58 60 59 60 60 58 57 58 59 61 65 65 64 66 65 62 63 61 60 58 54 53 52 52 48 49 49
50 48 47 48 52 52 50 43 48 53 54 55 53 52 52 52 52 53 53 55 56 56 56 59 58 59 59 59 57 60 60 60 59 62 63 64 63 65 66 61 61 58 58 57 55 52 51 49 47
45 54 53 51 46 39 51 34 43 47 47 49 49 48 48 50 53 54 54 54 53 55 57 57 58 58 61 58 56 53 53 53 55 57 59 63 62 62 64 64 63 61 58 57 56 55 51 49 48
51 55 52 50 44 40 42 37 37 46 43 45 48 50 50 49 50 51 53 55 55 55 55 56 56 58 57 56 55 53 52 52 54 55 56 57 60 61 65 65 62 62 61 60 58 54 50 50 48
57 51 47 43 40 32 41 40 37 39 42 44 47 50 52 51 50 51 53 55 54 54 55 55 55 55 56 55 56 55 53 53 51 52 53 55 57 57 59 62 63 62 61 61 57 58 56 54 49
50 40 33 34 32 34 45 40 35 43 45 46 47 49 51 51 50 51 52 52 53 54 55 57 54 53 54 53 54 54 53 52 52 52 51 52 56 58 56 58 61 62 62 60 59 56 56 55 53
44 41 33 29 28 32 42 34 37 47 49 48 49 50 51 50 50 51 52 52 52 54 53 53 53 52 53 53 53 54 53 51 52 52 52 52 53 57 60 61 60 63 64 62 61 56 56 55 55
44 38 43 35 33 29 34 36 44 46 45 45 47 49 48 49 50 50 52 52 51 52 52 53 53 53 53 53 55 52 51 52 52 53 54 52 54 58 60 60 61 62 64 63 60 59 55 55 55
46 48 36 33 27 25 29 31 34 38 40 44 46 45 47 50 49 49 50 51 51 51 51 51 52 51 52 53 53 57 53 53 54 54 52 53 53 54 56 58 60 60 62 62 60 59 56 54 53
41 39 39 36 31 25 21 29 39 39 40 44 47 50 50 46 47 47 49 51 51 51 50 51 52 53 54 53 52 51 54 55 53 54 55 53 53 53 56 58 60 59 60 60 61 59 57 53 53
43 38 36 26 27 26 19 25 45 41 47 49 48 49 48 47 48 48 49 48 48 49 49 49 50 50 50 51 51 51 55 55 51 54 54 53 52 53 54 56 58 60 61 61 60 58 58 53 53

GFSSGP_sfc_temp_033.txt.gz
Temp
80 79 74 71 61 57 54 59 63 65 67 71 73 72 69 69 68 59 70 74 75 75 78 80 82 82 82 82 82 81 81 81 81 80 80 80 81 81 80 81 82 81 81 81 81 81 81 81 81
77 80 72 64 56 50 54 61 63 68 72 73 73 71 68 67 72 69 69 75 76 76 78 78 82 82 82 82 81 81 81 80 80 80 80 80 80 81 80 80 81 81 81 80 80 80 81 81 81
78 79 66 59 54 52 54 63 66 72 74 73 71 71 71 70 73 71 73 76 77 76 77 78 82 81 82 82 81 81 80 80 80 79 80 80 80 80 79 80 82 82 81 79 79 79 80 80 80
73 70 66 58 54 59 60 66 72 71 75 75 72 67 71 75 75 75 76 76 75 74 75 78 81 81 82 82 81 80 80 80 79 79 80 80 80 79 78 79 80 80 80 80 79 79 79 79 79
68 64 56 54 56 63 65 69 70 70 70 72 71 67 69 75 76 75 76 77 73 72 75 78 81 81 81 81 81 80 80 80 79 79 79 79 79 79 78 77 78 78 79 80 79 79 79 79 79
63 62 54 50 55 63 65 67 68 67 69 73 69 66 68 73 74 74 76 74 76 74 76 78 81 81 81 81 81 80 80 80 79 79 79 78 78 78 77 77 76 77 77 77 77 79 81 79 78
61 57 53 51 55 58 65 69 64 66 66 68 72 63 67 72 71 75 72 72 75 76 76 76 78 79 80 81 80 80 79 79 79 79 78 78 78 77 77 76 76 76 76 76 76 78 78 78 77
61 58 52 52 54 57 65 69 69 66 67 74 73 64 63 70 74 73 71 71 71 73 75 74 75 77 76 76 80 80 80 79 79 78 78 77 77 76 76 76 75 75 75 75 75 75 76 76 76
64 54 50 54 56 60 66 66 69 70 65 67 68 66 72 73 74 71 68 69 70 73 72 73 74 74 73 73 76 79 79 79 78 77 77 75 65 66 67 71 74 75 75 75 75 75 75 75 74
59 51 56 61 61 60 65 63 66 66 63 62 66 70 72 69 67 70 69 67 68 69 71 74 73 72 71 76 73 72 73 71 70 69 67 64 62 62 67 69 74 75 74 74 75 75 74 71 62
58 56 60 64 66 65 64 64 67 64 62 64 65 68 69 70 69 68 68 67 67 70 71 73 72 72 71 73 72 71 68 68 67 66 64 63 62 60 61 59 59 58 67 60 63 60 59 60 59
57 63 63 65 67 65 62 66 64 62 67 67 64 62 61 60 60 62 62 63 64 69 69 72 72 71 71 73 71 70 69 68 67 66 64 61 59 58 58 57 56 55 55 55 55 54 56 58 59
56 60 65 66 65 63 64 60 62 65 64 62 63 62 60 60 61 62 64 64 64 64 65 69 71 70 69 70 70 70 69 69 68 65 65 63 60 59 57 56 55 54 53 54 54 53 55 55 56
59 61 62 63 63 61 61 60 61 65 62 60 60 58 59 59 60 62 63 62 61 63 65 68 69 71 70 69 68 67 67 67 66 65 64 63 61 59 58 56 55 54 53 54 53 54 53 53 53
61 57 59 60 62 62 62 58 60 61 60 56 56 56 58 59 60 57 60 62 58 62 64 67 70 67 68 68 67 67 66 67 64 63 63 62 61 59 59 57 55 55 54 55 53 53 52 52 54
54 52 48 59 62 62 61 49 54 58 57 53 53 51 55 56 57 55 60 60 60 60 61 64 68 67 67 64 66 67 67 65 64 63 62 62 62 60 58 58 58 56 54 53 53 52 51 51 50
49 43 45 54 59 59 58 46 53 57 56 52 49 50 54 54 57 56 59 58 60 58 58 62 62 62 63 62 63 63 64 63 63 63 61 64 64 61 60 59 59 55 54 52 53 51 52 50 50
43 43 46 47 56 57 48 45 50 53 52 49 47 47 50 52 54 56 58 57 58 57 57 58 60 59 61 62 61 62 61 62 61 61 64 65 63 63 62 57 57 56 53 52 51 52 49 50 51
49 46 45 49 56 52 46 45 48 51 50 48 47 48 49 51 54 55 56 56 56 57 55 56 59 57 58 60 57 57 56 58 62 61 63 64 62 63 59 59 58 55 56 57 54 51 51 48 48
50 46 45 50 55 52 45 44 48 50 48 49 48 47 49 50 51 53 54 54 54 53 54 54 56 57 57 55 54 54 54 56 60 63 65 65 64 61 59 59 58 59 55 54 52 52 48 49 47
48 46 44 46 50 50 45 41 43 48 50 51 49 48 48 48 49 50 50 52 53 53 52 55 55 56 56 55 54 54 55 54 54 56 60 62 64 63 62 61 60 58 60 59 56 55 52 49 46
44 52 51 49 44 38 46 33 39 43 44 46 45 45 46 48 50 51 52 51 51 53 54 54 55 55 58 54 52 51 50 50 51 51 53 55 58 59 62 61 60 61 57 59 59 59 58 51 49
49 53 50 47 42 37 39 36 34 42 40 42 45 48 48 50 51 51 52 53 53 54 53 53 54 55 55 53 51 50 49 49 50 51 52 53 54 56 57 57 57 60 57 59 61 59 56 58 50
54 48 45 41 38 31 37 38 34 37 41 42 44 49 49 49 50 51 52 53 53 53 53 53 53 54 53 53 52 50 49 49 49 49 49 50 51 53 54 56 54 56 57 57 58 59 57 58 58
49 39 32 33 31 33 41 37 34 42 44 45 44 47 48 49 48 49 50 50 51 52 52 53 52 52 52 52 51 51 50 49 47 49 49 49 49 50 52 53 53 53 55 57 58 58 58 59 56
42 39 32 30 28 30 38 33 36 45 47 47 47 47 47 48 48 48 50 50 50 51 51 50 50 51 52 51 51 50 50 49 49 49 49 49 49 50 52 52 53 54 56 57 58 58 58 60 57
41 36 40 34 30 27 31 36 39 43 43 43 44 46 46 47 47 49 49 49 49 49 50 50 50 51 52 52 50 50 49 49 49 51 51 50 50 53 52 53 52 53 56 57 57 58 57 58 58
43 46 35 32 27 25 28 29 33 37 38 42 42 43 45 46 47 47 48 48 49 48 48 49 49 49 50 50 49 52 49 48 50 48 47 49 51 51 51 51 52 52 55 56 56 56 58 57 55
39 37 36 35 30 26 21 29 38 38 41 40 42 44 45 44 45 46 46 47 49 50 50 50 49 49 50 50 49 48 49 52 50 51 52 53 52 50 50 51 51 52 53 54 54 56 58 58 57
41 36 35 27 27 24 19 24 42 41 42 43 43 44 44 45 46 46 47 48 49 51 49 49 50 49 51 50 48 49 51 52 49 51 51 53 52 52 52 51 51 51 52 52 53 54 57 57 55

GFSSGP_sfc_temp_036.txt.gz
Temp
79 78 73 70 61 56 53 57 61 63 66 69 71 69 66 67 66 58 69 72 73 74 76 80 82 82 82 83 82 82 81 81 81 81 81 80 81 80 81 82 82 81 81 81 81 81 81 81 81
76 78 71 63 56 49 53 60 61 66 69 70 71 69 68 66 70 67 68 73 75 75 76 77 82 82 82 82 82 82 81 80 80 80 80 80 80 81 81 80 81 81 80 80 80 80 81 81 81
77 77 66 58 53 51 53 61 65 71 71 71 68 69 68 68 72 70 71 74 75 75 76 77 82 82 82 82 82 81 80 80 80 79 79 79 80 80 79 80 82 83 80 79 79 79 80 80 80
72 69 65 57 52 57 58 63 67 70 73 73 69 66 69 73 72 72 74 74 72 73 74 78 82 81 82 82 81 80 80 80 79 79 79 79 80 79 78 79 81 81 80 80 80 78 79 79 80
67 63 56 53 55 59 61 67 67 67 68 70 69 65 67 73 73 72 73 74 72 72 73 77 81 81 82 82 81 80 80 79 79 79 79 79 79 78 77 77 78 78 79 79 79 79 79 79 79
63 61 53 49 54 61 62 64 65 65 67 70 68 65 66 69 71 71 73 71 74 72 74 76 81 81 81 82 81 80 80 79 79 79 78 78 78 78 77 76 76 77 77 77 77 79 79 78 78
61 56 52 50 52 56 62 66 62 63 64 65 66 61 66 69 69 71 70 70 72 73 73 74 76 79 80 81 81 80 79 79 79 79 78 78 77 77 76 76 76 76 76 76 76 78 79 78 77
60 57 51 50 52 54 64 67 67 64 62 70 68 62 60 69 68 70 70 69 70 71 72 72 73 75 75 76 80 80 79 79 79 78 78 77 77 76 76 75 75 75 75 75 75 76 76 76 76
62 54 50 52 53 57 63 63 67 66 62 64 66 67 67 69 69 67 67 68 69 71 70 71 72 73 73 73 76 79 79 79 78 77 77 75 65 65 66 72 74 75 75 75 75 75 75 74 72
58 51 54 59 58 58 63 60 63 63 61 63 62 63 62 65 66 66 65 64 66 67 71 71 72 73 71 75 72 72 72 71 70 69 68 64 63 62 66 69 74 74 74 74 74 75 73 68 61
56 55 58 62 63 63 62 63 65 61 56 53 53 55 58 59 60 61 61 59 59 64 69 72 75 75 72 72 70 69 68 67 67 67 65 63 63 62 62 59 59 58 65 59 60 59 58 58 58
55 60 60 63 64 62 60 64 58 53 51 57 57 56 58 57 57 59 59 60 61 62 64 67 72 74 72 72 69 69 67 66 65 64 64 61 59 58 58 58 57 56 55 55 54 54 55 56 57
54 58 63 64 62 60 61 60 56 53 56 57 60 58 56 57 57 59 60 61 60 61 63 65 66 70 73 71 68 68 68 67 66 64 63 61 59 57 57 56 55 54 53 53 53 53 54 53 54
57 58 59 60 62 61 60 59 58 55 56 56 56 54 55 55 55 58 58 58 56 59 61 65 66 65 70 69 67 67 68 68 66 63 63 62 60 58 57 56 55 53 53 53 53 53 53 52 52
58 56 57 58 60 58 58 53 48 54 54 52 50 50 54 54 56 53 56 57 53 57 58 62 66 65 66 67 69 68 66 66 64 63 63 62 61 59 59 57 55 54 53 54 52 51 51 51 53
52 51 46 56 59 60 59 43 50 54 52 48 49 48 51 53 53 52 56 56 55 54 55 60 63 62 61 60 64 67 67 66 64 63 62 64 65 63 62 59 60 57 54 53 51 51 50 50 50
47 42 44 52 57 56 52 42 49 52 52 48 46 47 50 51 53 53 55 54 55 54 54 57 57 59 59 59 59 59 60 61 61 60 60 61 61 61 61 60 59 59 58 54 52 51 51 50 49
40 41 44 45 53 50 44 42 47 49 48 46 45 45 48 50 51 53 55 55 55 54 54 54 56 55 57 57 57 58 58 58 59 58 59 61 59 60 57 58 56 57 54 52 51 53 49 50 50
48 44 43 47 53 46 42 43 45 47 46 46 45 45 47 49 52 53 54 54 54 53 52 52 55 54 53 53 52 53 53 54 56 58 61 61 60 59 57 55 55 54 55 57 55 51 51 49 48
48 43 42 48 53 47 42 41 45 46 46 46 45 44 46 48 50 51 52 52 52 52 52 52 53 54 53 52 51 51 50 53 53 55 58 60 63 63 61 59 57 54 53 53 52 54 51 49 49
46 43 42 45 48 46 43 38 42 46 47 48 47 47 48 48 49 50 49 50 51 52 50 53 53 54 53 52 52 52 51 51 51 52 53 54 56 58 59 61 60 57 53 54 52 52 52 56 49
42 50 49 47 42 36 44 33 36 41 43 44 45 45 46 48 49 50 51 51 50 52 52 52 53 53 56 52 51 49 47 47 49 48 50 51 54 54 55 55 55 55 55 52 55 55 55 51 52
48 50 46 45 40 35 37 35 35 40 39 41 43 46 46 47 48 49 50 51 52 52 51 51 51 52 53 51 50 48 47 47 48 48 48 50 51 52 54 53 52 52 52 53 58 54 54 54 56
52 46 42 38 36 31 34 35 34 35 39 41 42 46 47 48 48 49 50 51 51 51 51 50 50 51 52 50 50 48 47 47 46 47 47 48 49 50 52 53 51 51 50 51 53 55 52 56 56
47 38 33 34 32 32 38 35 36 40 42 44 43 43 47 47 47 47 47 48 49 50 50 51 51 49 51 50 50 49 48 47 46 47 47 47 47 48 50 51 51 50 51 51 50 51 53 53 54
40 38 32 30 29 30 36 32 38 43 45 46 45 43 45 46 46 45 47 47 47 49 49 49 49 48 50 49 49 49 48 46 47 47 47 46 46 48 50 50 51 51 51 51 50 50 52 54 54
39 35 39 33 28 26 30 35 38 40 41 43 41 43 43 45 45 46 47 47 47 47 48 48 49 49 50 51 50 49 48 47 46 47 47 47 47 51 50 50 50 50 50 50 49 49 51 53 54
42 45 34 30 27 25 27 29 33 35 37 40 40 41 43 44 44 45 46 47 48 48 49 47 48 48 50 50 50 51 48 48 47 47 46 46 48 49 50 49 49 49 50 50 49 48 50 51 53
39 35 35 33 30 26 22 29 37 41 41 39 40 42 43 43 43 44 45 46 48 48 47 51 51 50 50 50 51 50 50 49 48 46 47 47 48 47 48 50 50 49 49 49 48 48 49 50 52
38 35 35 27 27 23 19 25 40 39 41 42 42 43 43 43 44 44 46 49 48 49 50 51 52 50 51 51 51 52 52 51 47 46 47 47 46 48 48 49 49 49 50 49 48 47 49 48 50

GFSSGP_sfc_temp_039.txt.gz
Temp
81 82 80 77 70 68 63 66 71 72 75 79 80 79 78 79 75 70 77 80 79 81 83 84 82 82 83 84 83 82 81 82 82 81 81 81 81 81 82 82 81 81 81 81 81 82 82 82 82
81 81 77 72 65 59 63 69 69 73 78 79 80 80 79 77 80 78 79 80 81 82 83 85 82 83 82 83 82 81 81 81 80 80 81 80 80 81 81 81 82 81 80 80 80 81 81 81 81
82 80 74 68 63 62 64 70 71 76 80 80 79 81 79 78 81 82 81 80 81 82 83 83 82 82 83 82 81 81 81 80 80 80 79 79 80 81 79 80 82 81 80 80 79 80 80 80 80
77 77 74 67 64 67 69 72 73 76 79 80 80 78 82 83 81 82 81 81 81 82 83 82 82 82 82 82 82 81 80 80 79 79 79 79 80 79 78 79 81 80 80 79 79 79 80 80 80
73 72 65 64 64 68 72 73 72 74 76 77 78 76 77 81 79 79 80 81 81 81 83 84 82 82 82 82 82 81 80 80 79 79 79 79 79 78 77 78 78 78 79 79 78 79 79 79 79
70 70 64 61 64 68 72 73 74 74 74 77 77 76 77 80 81 78 80 81 82 81 82 83 82 81 81 82 82 81 80 79 79 79 78 78 78 78 77 76 76 77 78 77 77 78 79 79 79
69 66 63 62 62 66 70 74 73 72 73 76 76 73 78 82 76 78 79 80 81 82 81 83 85 83 81 81 81 81 80 80 79 79 78 78 78 77 76 76 76 76 75 76 76 77 78 78 78
67 66 62 61 61 64 70 74 75 74 73 77 77 69 71 73 74 77 78 78 78 79 80 81 83 84 84 85 80 80 80 80 79 79 78 77 77 77 76 76 75 75 75 75 75 76 76 75 76
70 62 60 63 63 66 70 70 75 75 73 74 69 64 65 69 76 77 76 77 78 78 79 80 81 83 83 83 82 80 80 79 79 79 78 78 79 78 77 75 74 75 75 75 75 75 75 73 73
65 61 64 67 68 67 69 69 69 72 65 63 64 66 66 69 70 69 69 70 71 72 77 80 80 80 81 80 83 83 82 82 81 81 80 80 77 77 76 74 74 75 75 75 75 75 72 73 77
65 63 66 69 70 69 67 64 63 64 57 57 56 59 63 66 66 67 67 67 67 70 73 75 76 81 79 78 79 81 81 81 80 80 79 78 76 76 77 75 76 75 72 75 74 74 75 72 75
66 67 67 69 67 66 65 64 57 57 56 60 61 62 63 63 63 64 65 66 67 69 69 73 74 73 77 76 76 79 79 79 79 78 78 76 75 74 74 74 73 72 73 73 73 73 72 71 72
65 65 67 67 66 63 63 58 57 56 60 62 62 61 61 62 63 65 67 67 68 68 69 71 73 74 77 74 74 74 78 78 78 77 76 76 74 74 73 73 72 71 71 71 72 71 72 72 72
64 64 64 65 66 64 58 56 59 58 60 59 59 59 60 61 61 64 65 65 66 68 68 71 72 72 74 71 71 70 71 72 71 75 76 74 73 73 72 73 72 71 71 71 71 72 71 72 72
64 63 64 63 64 63 62 54 50 58 58 57 57 59 60 60 62 62 63 64 65 67 68 69 71 72 72 71 69 69 69 69 69 69 74 75 74 73 69 68 72 72 72 71 70 70 69 69 69
59 59 56 61 62 63 64 51 53 57 56 55 56 58 59 60 61 62 63 65 65 67 66 68 69 71 71 70 70 72 71 69 68 67 66 66 67 68 67 67 68 71 69 68 68 68 67 68 68
55 54 54 57 59 60 59 49 53 56 55 54 55 57 59 60 62 63 64 64 64 65 66 67 68 69 70 70 71 71 71 70 71 71 71 70 69 69 65 65 67 70 69 68 66 67 67 67 67
52 53 54 53 58 56 51 47 52 54 54 53 54 56 57 59 59 61 63 64 65 65 66 66 67 67 70 70 71 70 70 70 70 70 71 72 69 68 68 65 64 66 67 67 66 66 64 67 68
56 54 52 54 56 53 48 48 51 53 53 53 54 56 57 59 60 61 62 64 64 65 65 64 66 66 66 66 65 67 66 67 68 68 68 69 69 69 67 66 65 63 63 66 66 65 64 64 65
55 52 51 54 55 54 47 47 51 53 53 54 54 55 56 58 60 61 62 62 63 63 64 65 65 64 65 64 64 64 65 66 65 65 67 66 66 67 68 67 65 63 61 62 63 62 63 63 63
53 51 50 52 52 50 47 46 47 52 54 54 56 56 56 57 58 61 62 61 61 63 61 62 63 63 64 63 63 64 65 64 64 65 65 65 64 65 66 66 66 66 63 61 61 61 60 62 62
49 55 54 52 49 45 49 45 43 48 49 52 54 54 55 56 58 59 60 61 62 62 61 62 63 63 64 62 61 60 59 58 62 61 61 62 64 65 65 65 65 65 65 63 63 62 61 56 61
52 54 51 50 47 46 44 43 47 46 45 49 53 54 55 56 56 57 59 59 62 60 60 60 61 63 63 62 59 58 58 59 60 60 60 63 64 64 64 65 65 64 64 64 63 63 62 62 61
54 50 47 44 43 40 43 43 48 43 47 49 53 54 55 56 57 57 58 58 59 60 59 59 60 61 61 60 61 58 57 58 58 59 59 61 62 62 64 64 63 63 62 62 63 63 62 60 62
51 46 43 42 41 42 43 41 49 48 48 52 52 54 55 55 56 56 56 57 57 57 58 59 60 58 61 61 60 60 58 58 58 58 58 59 60 61 61 62 62 62 62 61 61 61 61 61 60
46 46 43 39 39 40 40 41 50 49 52 53 53 53 52 54 55 55 55 55 56 56 57 59 59 58 59 59 59 60 59 59 59 59 58 59 59 60 60 60 61 61 61 61 61 60 60 60 60
46 43 46 39 36 37 41 44 49 48 47 48 50 50 51 52 54 54 55 56 57 58 58 58 57 57 58 59 60 60 60 58 57 58 59 58 59 59 59 59 59 60 60 61 61 60 60 60 60
49 48 41 40 37 34 38 37 44 42 45 47 48 49 50 51 52 53 54 55 57 58 58 58 57 56 58 59 59 58 58 59 58 58 57 57 58 58 58 58 59 58 59 60 60 59 60 60 60
44 42 39 41 39 37 33 41 47 47 48 47 48 50 50 51 51 53 54 56 55 56 56 57 57 57 58 58 58 57 58 58 59 57 58 58 57 58 57 57 57 57 57 59 59 60 59 58 59
45 43 42 40 35 32 31 34 48 47 48 48 49 49 50 50 51 52 53 53 54 55 55 55 56 56 56 57 56 57 58 57 57 57 57 58 55 57 56 57 56 57 57 58 58 57 59 58 57

GFSSGP_sfc_temp_042.txt.gz
Temp
89 92 94 87 79 80 71 72 81 80 82 88 89 87 85 88 82 74 86 90 90 90 91 88 82 83 83 84 82 83 81 82 82 82 82 81 81 82 82 82 81 81 81 81 82 82 82 82 82
91 88 88 86 77 71 70 79 76 81 85 88 89 88 87 82 91 88 89 88 91 91 92 91 82 83 84 83 83 81 82 82 81 80 81 80 81 81 82 81 83 81 81 81 81 81 81 81 81
90 89 87 84 79 70 71 78 79 83 88 87 87 91 88 82 90 91 91 90 92 92 92 90 82 83 83 84 83 82 81 80 80 80 79 80 80 81 80 81 83 80 80 80 80 80 81 80 81
89 90 90 80 72 74 76 80 81 83 87 89 88 84 88 89 87 91 92 92 93 92 92 84 82 83 83 83 83 82 80 80 79 79 79 80 80 78 79 81 81 80 80 79 79 79 80 80 80
91 89 81 75 73 77 82 82 85 82 83 86 88 82 82 86 91 90 90 92 92 92 92 90 82 82 82 83 82 82 80 80 79 79 79 79 79 78 77 79 79 79 79 79 78 78 80 80 80
86 86 78 73 73 77 83 84 84 84 85 85 84 84 82 89 85 88 90 91 93 91 91 91 83 82 82 82 82 82 80 80 79 79 79 79 79 78 77 77 77 77 78 78 77 77 79 80 79
81 81 73 72 72 74 77 84 82 81 82 81 84 81 86 84 83 87 89 91 91 91 90 92 92 86 80 81 82 82 80 80 79 79 79 78 78 77 77 76 76 76 76 76 76 77 77 77 78
83 83 73 73 72 70 78 82 83 81 78 85 81 75 78 77 83 87 88 89 89 89 91 93 93 93 86 85 81 81 81 80 80 79 78 78 77 77 76 76 76 76 76 75 75 76 76 75 77
80 78 73 71 72 72 79 78 83 83 81 75 74 72 74 79 85 85 86 86 87 88 91 91 91 92 91 91 89 81 80 79 79 79 78 79 85 85 82 78 75 75 75 75 75 75 75 73 74
81 77 72 76 76 74 76 77 75 78 75 71 73 76 77 79 81 80 81 81 82 83 85 88 91 91 92 90 91 91 90 90 86 89 88 88 87 86 82 77 74 75 75 75 75 75 74 73 86
77 74 74 75 76 76 75 72 71 74 67 66 65 69 74 77 77 78 79 80 80 82 82 84 86 87 81 85 84 85 86 90 91 89 89 88 86 85 84 85 83 83 76 83 79 79 82 82 83
75 75 75 74 73 73 72 72 66 67 64 68 68 71 74 75 74 76 76 78 79 80 80 83 84 86 87 80 77 77 78 82 85 88 87 87 85 85 85 84 84 82 83 83 82 83 82 80 81
75 74 75 74 72 72 72 66 65 63 66 69 70 71 72 74 75 76 78 79 80 79 80 81 84 85 86 83 75 75 74 73 79 80 84 84 82 84 85 84 84 83 83 83 83 82 82 82 83
74 73 73 74 72 71 68 64 66 63 68 68 69 70 71 71 74 75 76 77 78 79 79 81 82 83 84 82 78 72 71 70 70 71 74 79 81 82 78 82 83 83 83 83 83 83 82 82 83
73 71 73 72 72 67 71 63 59 65 67 67 68 70 70 71 73 73 75 75 78 79 79 79 80 83 83 81 81 80 79 74 70 68 69 68 67 69 72 75 79 82 84 82 82 83 82 81 81
71 71 66 69 71 68 69 64 61 65 66 65 68 69 69 70 72 74 75 76 77 79 79 79 80 81 82 81 81 81 81 80 80 80 79 75 71 69 67 67 68 71 73 77 79 78 77 78 79
69 68 65 65 68 68 68 62 62 65 65 64 67 68 69 70 71 73 74 75 76 77 78 78 79 79 80 81 81 81 80 79 80 80 79 78 76 77 77 73 68 68 68 74 75 77 76 77 77
65 65 64 64 66 66 63 60 61 63 64 65 66 67 68 69 69 71 73 74 76 77 78 77 78 78 78 79 79 79 79 79 79 78 77 78 77 76 75 75 75 72 66 65 71 74 77 75 77
66 63 62 64 64 62 60 60 60 62 63 63 65 67 68 68 70 72 72 74 75 76 76 76 75 76 76 75 74 74 73 76 76 77 76 76 75 75 74 75 74 73 70 67 65 67 71 72 75
64 62 63 62 62 62 62 60 62 61 62 64 65 66 67 67 70 71 72 72 71 73 74 75 75 74 75 73 73 74 75 74 74 74 75 75 75 74 74 73 73 73 71 70 67 61 63 67 70
63 61 61 60 60 60 58 59 57 60 63 63 65 67 67 67 68 70 71 71 71 72 72 72 73 73 74 73 72 72 73 73 72 72 72 73 73 74 73 73 73 73 72 70 69 68 60 55 59
59 62 60 58 57 56 59 57 56 60 57 61 63 65 66 66 68 69 70 70 72 72 71 72 72 73 73 73 70 69 67 66 69 70 71 71 73 73 73 73 72 72 72 71 70 71 68 62 57
59 60 58 57 57 56 55 53 61 59 55 59 63 65 66 67 67 67 68 69 72 71 70 71 72 73 73 72 70 68 66 67 69 70 69 70 71 72 72 72 71 70 70 71 70 69 70 68 64
61 58 56 56 56 50 57 54 65 56 59 61 64 64 65 66 66 68 69 69 70 70 69 69 70 70 70 70 69 67 65 66 66 67 67 68 69 70 71 70 70 70 69 68 69 69 68 68 68
61 58 55 51 50 53 54 52 62 61 61 65 62 63 65 65 65 65 66 67 67 67 68 68 68 67 69 69 68 67 66 66 65 66 66 66 66 67 68 69 68 68 68 68 67 67 67 67 66
56 56 55 46 52 54 50 49 62 59 62 65 65 65 63 63 65 64 65 65 66 66 67 67 67 66 67 67 66 67 67 66 66 66 66 65 65 66 67 68 67 68 68 68 67 66 66 67 66
55 54 55 51 49 48 58 58 61 57 58 60 61 61 61 61 63 64 65 65 66 66 66 66 65 65 66 66 66 66 66 65 64 64 65 65 65 65 65 65 65 66 66 66 66 65 66 66 67
56 58 51 54 46 45 54 52 58 53 55 57 59 60 61 60 62 64 64 65 66 66 66 66 66 65 65 65 65 64 64 64 64 64 63 63 64 63 63 63 63 64 65 66 65 64 66 65 66
52 53 52 52 52 48 47 56 64 61 62 61 62 63 62 61 61 62 64 65 65 65 65 65 64 63 62 62 62 61 61 62 63 62 62 62 62 63 62 62 62 63 63 65 64 64 65 64 64
54 54 56 50 48 49 44 48 61 60 61 61 64 64 63 61 60 61 62 63 63 63 63 62 62 61 60 60 60 59 60 60 60 60 61 62 61 62 62 61 61 62 63 63 63 62 64 63 62

GFSSGP_sfc_temp_045.txt.gz
Temp
89 98 97 89 77 78 72 74 85 81 83 92 93 89 86 87 82 72 89 94 95 93 92 87 82 83 83 83 83 83 83 82 82 82 82 81 81 82 81 82 82 82 81 81 82 82 82 83 82
94 95 91 88 71 62 71 83 78 83 88 92 93 92 88 81 92 89 91 93 95 95 94 91 82 83 83 83 83 83 83 82 82 82 81 80 81 81 81 83 81 81 81 80 81 81 81 81 81
94 95 88 84 79 69 71 81 82 87 91 91 89 94 87 80 90 93 94 95 96 95 96 87 82 83 84 84 84 83 83 81 81 82 80 80 81 80 80 81 81 80 80 79 80 80 81 81 81
93 92 92 80 73 78 79 82 86 86 90 92 92 84 88 89 89 94 96 97 96 95 96 83 82 83 83 84 83 82 80 80 80 79 79 80 80 78 79 81 80 80 79 80 79 79 80 80 81
95 91 81 77 75 81 84 86 87 85 86 88 92 84 82 86 93 95 95 97 96 96 96 90 82 83 83 82 82 82 81 80 79 79 79 80 79 78 78 79 79 79 79 79 78 78 79 80 80
86 90 79 74 75 81 85 88 87 86 88 87 87 87 81 88 88 92 95 96 97 95 94 92 83 82 82 82 82 82 80 80 79 79 79 79 79 78 77 77 77 77 77 78 77 77 78 80 79
84 82 76 76 75 76 80 89 84 85 85 82 87 84 87 85 88 92 94 96 96 96 94 95 94 86 81 81 81 82 80 80 79 79 79 78 78 78 77 76 77 77 77 77 76 77 76 78 78
86 84 76 77 75 72 81 85 86 84 79 88 85 77 78 82 89 92 93 94 95 94 95 98 96 97 92 89 81 81 81 80 80 79 79 78 78 78 77 76 76 76 76 76 76 76 76 76 77
87 78 75 74 75 75 83 81 85 88 81 80 80 78 80 85 90 90 91 91 92 92 95 96 96 97 94 91 88 81 80 80 79 79 78 79 83 83 83 79 76 76 76 76 76 76 76 74 75
83 77 74 80 81 78 80 80 80 81 79 76 77 81 83 85 86 85 85 85 86 87 89 91 92 92 93 90 90 82 87 86 87 89 88 88 90 89 85 79 75 76 76 76 76 75 75 75 83
83 76 79 78 80 80 79 77 77 78 70 70 70 75 80 82 82 82 83 84 84 85 86 87 90 90 90 89 81 82 84 80 79 83 89 91 90 88 87 85 82 80 76 81 78 78 79 84 84
78 79 80 77 78 78 77 78 71 73 69 74 74 77 79 79 79 80 80 82 83 83 84 86 89 89 90 91 82 76 74 77 77 77 78 80 85 88 87 87 86 85 84 84 84 84 84 82 82
80 78 78 78 77 77 77 73 70 68 72 75 75 76 77 78 79 81 82 83 83 82 83 85 87 88 87 86 83 75 72 72 72 72 73 72 74 78 79 86 86 85 85 84 84 84 84 83 84
80 78 77 77 76 76 72 69 71 69 73 73 74 74 75 75 77 79 80 81 82 82 82 84 85 87 87 84 83 82 81 77 72 70 70 70 69 71 71 75 78 84 85 85 84 84 83 83 85
79 74 75 76 76 72 75 67 68 71 73 72 73 74 74 75 77 77 79 79 82 82 82 82 83 85 85 84 83 82 82 82 81 81 81 77 72 69 68 68 69 75 76 82 84 84 83 83 83
75 76 69 74 75 72 71 67 68 72 72 71 73 74 72 74 76 77 78 79 81 82 81 81 82 82 83 83 83 83 82 82 81 82 81 80 79 78 77 73 69 69 68 69 72 75 78 78 79
74 69 71 67 75 74 71 68 69 72 71 70 73 73 73 73 75 76 78 79 80 81 81 80 80 80 80 81 81 81 81 81 81 81 80 79 79 78 77 76 77 75 69 66 66 72 75 75 77
69 70 72 69 71 71 70 69 69 69 69 70 72 73 73 73 73 75 76 78 78 80 80 80 80 80 80 79 79 79 79 79 79 79 78 79 78 77 75 75 75 76 74 69 66 64 65 72 74
72 69 68 72 71 65 67 69 68 68 68 68 70 72 72 74 74 75 76 77 78 78 79 79 78 78 78 75 74 73 72 75 75 76 77 76 76 76 74 73 74 74 73 72 71 68 64 62 71
70 68 68 71 68 66 69 67 72 69 66 69 69 71 72 73 74 75 75 75 75 76 77 77 77 76 76 74 74 73 74 74 74 74 75 75 75 75 74 73 72 73 71 71 71 69 66 64 63
68 66 67 65 66 69 64 64 68 69 68 69 71 72 73 72 73 75 76 75 75 75 76 75 75 75 75 75 74 73 73 72 71 72 72 73 74 73 74 73 73 72 71 69 70 69 67 63 63
63 67 65 63 61 60 66 58 65 66 63 65 67 69 70 71 72 73 73 73 75 75 75 75 75 75 75 75 72 70 67 66 69 70 71 72 73 73 73 73 73 72 71 70 69 71 69 67 64
63 65 63 62 61 62 63 56 65 67 60 63 66 68 70 72 72 72 72 73 74 74 74 73 73 74 74 73 71 69 67 68 69 70 69 71 72 73 73 72 72 71 70 70 69 68 68 68 66
66 63 63 62 60 52 64 59 66 62 65 68 69 70 70 71 72 71 73 73 73 73 72 71 71 71 71 71 70 68 66 66 66 66 66 67 69 70 71 71 71 70 69 68 68 68 67 67 67
63 61 55 52 50 55 62 57 66 69 68 70 70 70 70 71 70 70 70 70 70 69 69 70 70 68 70 70 69 68 67 66 65 65 66 65 66 67 68 69 69 69 68 67 66 66 66 65 65
62 61 56 47 53 57 58 54 64 67 69 70 72 71 70 69 70 69 69 68 69 69 69 69 69 68 69 69 68 68 68 67 66 66 65 65 65 66 67 67 67 68 68 67 67 65 65 65 64
60 56 61 56 61 53 62 64 64 64 64 67 67 68 66 67 68 68 69 69 69 69 69 69 68 67 68 68 67 67 67 65 64 64 66 65 66 66 66 66 65 66 66 65 65 64 64 65 65
60 63 55 57 48 48 59 60 61 59 61 64 65 65 66 67 67 67 68 69 69 70 69 69 69 67 67 67 66 65 64 64 64 64 63 63 64 64 64 64 64 63 64 64 63 63 64 64 63
57 58 57 56 57 50 49 57 68 66 67 65 66 68 67 68 67 67 68 69 69 69 69 68 67 66 65 64 63 62 62 62 62 61 61 62 62 63 62 63 62 62 62 63 63 64 64 63 63
59 59 60 52 53 55 51 51 71 67 66 66 68 69 70 70 68 66 67 67 68 67 67 66 65 64 63 62 61 60 60 60 59 58 59 59 59 60 60 61 61 62 62 62 62 62 63 62 61

GFSSGP_sfc_temp_048.txt.gz
Temp
86 95 90 82 68 67 65 69 78 75 78 85 87 83 78 80 74 62 81 87 89 85 83 83 82 83 82 82 83 82 82 82 82 81 81 81 81 81 82 82 81 81 81 81 81 81 82 82 82
86 91 83 76 59 54 64 76 73 77 83 87 88 84 79 74 84 81 80 88 90 88 86 83 82 82 83 83 83 82 82 82 82 81 80 80 81 81 81 82 81 80 80 80 80 80 81 81 81
85 94 75 72 61 57 64 75 76 83 86 86 84 85 78 74 86 83 86 90 91 89 86 82 82 82 83 83 83 82 82 81 80 80 80 80 80 80 80 81 81 80 80 79 79 80 80 80 81
85 82 80 70 67 72 73 76 81 83 85 87 84 74 80 84 85 87 91 92 89 87 82 80 82 82 82 83 82 82 81 80 79 79 80 80 79 79 79 80 80 80 79 79 79 79 79 80 80
84 78 70 68 70 75 78 82 82 80 81 83 83 73 73 81 89 90 88 92 88 87 83 81 82 82 82 82 82 81 82 80 79 79 79 79 79 78 78 78 78 78 78 78 78 78 79 80 80
75 78 68 64 70 76 79 82 82 80 80 79 79 74 71 80 83 86 89 89 91 87 85 83 81 81 82 82 82 82 82 81 79 79 78 78 79 78 77 77 77 77 77 77 77 77 78 79 79
75 71 69 69 69 72 77 83 77 77 75 74 78 73 73 76 82 88 85 89 89 89 88 85 81 81 81 81 81 81 81 80 79 79 78 78 78 78 77 76 76 76 76 76 76 76 77 77 78
75 73 71 70 68 68 77 81 82 77 71 81 78 66 64 74 83 85 85 87 87 87 89 90 84 82 81 78 80 81 81 80 79 79 79 78 78 78 77 77 77 76 76 76 76 76 76 75 77
83 67 64 68 70 71 79 77 81 82 75 75 75 72 73 80 85 83 84 85 85 86 86 86 86 85 82 80 82 79 80 80 79 78 78 77 72 74 75 75 77 76 76 76 76 76 76 75 75
75 67 69 76 76 73 77 75 76 75 73 71 71 76 78 80 79 77 77 76 77 77 79 82 81 82 82 86 77 76 79 75 77 76 76 74 75 74 77 76 76 76 76 76 76 76 76 75 69
77 69 75 77 77 78 77 73 76 71 63 66 65 70 74 75 74 75 75 75 73 75 76 79 80 81 82 80 75 73 74 73 74 74 73 73 75 74 74 71 70 68 73 69 72 70 68 68 69
72 77 78 76 77 76 74 76 68 66 64 71 69 70 73 72 71 72 72 72 72 73 74 77 79 79 79 76 74 71 70 72 71 71 71 69 69 71 72 73 72 70 68 67 69 68 69 70 72
75 75 78 76 75 74 75 70 67 64 69 72 73 73 70 70 70 71 73 74 72 71 72 74 75 75 76 74 72 70 69 69 70 69 70 69 68 68 69 69 70 73 72 71 70 69 70 69 70
77 77 75 75 74 73 69 67 67 67 70 71 71 69 68 69 70 69 71 71 70 70 71 73 74 73 73 71 71 69 69 69 67 66 67 70 68 67 67 68 68 68 68 70 71 70 70 69 69
78 70 71 72 73 71 72 63 62 68 71 68 68 66 67 68 69 67 69 69 70 69 71 71 73 73 71 70 69 68 68 69 67 67 69 69 66 65 65 64 65 68 68 67 68 68 68 68 70
71 70 59 71 72 70 68 57 66 68 67 66 67 64 65 67 69 67 69 70 70 69 69 70 75 71 70 68 68 69 68 66 66 66 66 68 68 66 64 63 63 65 65 64 65 65 65 65 66
67 59 63 63 73 70 65 59 65 68 68 65 64 64 65 65 67 66 68 67 69 69 69 68 69 69 69 68 67 66 67 65 65 65 64 66 67 67 63 62 62 63 62 62 62 64 63 63 65
60 61 66 63 66 68 63 61 63 66 66 64 64 64 64 65 66 67 67 66 67 69 69 68 67 67 67 65 64 63 63 63 63 63 63 66 64 65 62 61 61 62 60 59 60 60 61 63 62
66 64 62 67 68 63 61 62 66 64 63 61 62 63 63 65 67 68 67 63 63 68 67 66 66 65 64 61 59 58 57 60 60 62 65 65 64 64 61 59 60 60 58 59 60 58 58 57 58
66 63 62 66 68 62 60 61 66 64 61 62 62 62 64 65 64 65 67 65 67 66 66 65 65 65 63 61 60 59 59 59 60 60 62 63 63 63 64 60 59 59 57 58 58 57 55 55 57
64 61 61 60 64 65 60 56 60 65 64 64 64 64 65 64 64 64 64 65 65 64 64 65 64 65 64 63 61 59 59 58 56 57 58 60 63 62 62 61 60 59 58 55 56 56 55 52 54
58 65 64 62 56 49 59 44 56 60 58 60 61 61 62 63 64 63 62 59 60 63 65 65 64 64 66 63 59 57 54 53 55 56 57 60 61 62 62 62 60 59 57 56 55 60 55 52 51
59 63 61 60 54 52 54 47 52 59 54 56 59 61 61 62 63 64 64 62 61 63 62 62 63 63 62 61 59 55 54 54 55 56 57 58 59 60 61 63 63 58 57 57 57 55 54 54 52
65 60 59 57 52 41 53 51 50 53 58 58 61 62 63 63 63 63 62 61 62 63 62 61 61 61 61 60 59 56 54 54 55 55 56 56 56 56 58 61 58 58 57 56 56 56 54 53 53
61 53 43 40 40 42 58 51 52 59 61 61 62 61 63 63 62 61 60 61 60 58 61 62 60 59 60 59 58 57 55 54 53 54 54 54 56 55 55 56 56 57 58 56 55 54 53 53 53
58 53 44 38 40 45 55 45 53 61 63 61 64 63 63 61 61 60 61 60 59 60 60 60 59 58 59 58 57 57 56 53 53 53 55 56 56 57 56 59 57 59 60 60 58 57 54 53 53
56 48 54 48 52 44 50 53 56 58 58 58 59 60 59 60 60 60 60 60 60 60 60 60 59 58 58 58 56 55 55 54 54 55 56 56 56 58 59 57 57 58 59 58 57 55 53 55 56
54 58 46 46 38 36 47 48 46 50 53 56 56 56 58 59 59 59 60 60 60 60 60 60 59 58 57 56 55 56 53 54 55 55 54 54 55 55 55 55 56 56 57 56 55 55 56 55 56
51 50 51 49 46 38 36 43 54 57 58 56 58 60 60 59 59 59 59 59 60 60 59 58 58 57 55 55 54 53 53 54 54 54 53 54 54 54 54 54 54 54 55 56 56 56 56 54 56
55 53 53 42 41 43 37 40 60 58 59 60 59 61 60 59 60 59 58 58 58 57 57 56 56 54 54 54 53 53 54 53 52 53 54 54 53 53 53 53 52 52 52 53 54 54 55 54 55